GW3448 Weather Reports


Display with metric or nautical units.
time (UTC)temp
F
wind
direction
speed
MPH
gust
MPH
rain 1hr
in
rain 24hr
in
rain mn
in
humidity
%
barometer
mb
20260901042104 75 259 0.0 3.0 0.00 0.00 0.00 40 1006.1
20260901042002 75 259 1.0 3.0 0.00 0.00 0.00 41 1006.1
20260901041902 75 260 1.0 3.0 0.00 0.00 0.00 40 1006.0
20260901041800 75 277 1.0 3.0 0.00 0.00 0.00 40 1006.1
20260901041702 75 269 2.0 3.0 0.00 0.00 0.00 41 1006.0
20260901041602 75 244 2.0 3.0 0.00 0.00 0.00 40 1006.0
20260901041501 76 248 2.0 3.0 0.00 0.00 0.00 39 1006.0
20260901041401 76 241 2.0 3.0 0.00 0.00 0.00 38 1006.0
20260901041314 76 263 2.0 4.0 0.00 0.00 0.00 39 1006.1
20260901041251 76 253 1.0 4.0 0.00 0.00 0.00 39 1006.0
20260901041217 76 233 1.0 4.0 0.00 0.00 0.00 39 1006.0
20260901041158 76 261 1.0 4.0 0.00 0.00 0.00 39 1006.0
20260901040907 76 273 1.0 5.0 0.00 0.00 0.00 39 1006.0
20260901040848 76 250 2.0 5.0 0.00 0.00 0.00 38 1006.0
20260901040517 76 259 2.0 5.0 0.00 0.00 0.00 38 1006.0
20260901040455 76 288 2.0 5.0 0.00 0.00 0.00 38 1006.0
20260901040434 76 240 2.0 5.0 0.00 0.00 0.00 38 1005.9
20260901040002 76 259 2.0 5.0 0.00 0.00 0.00 38 1005.9
20260901035903 77 274 2.0 5.0 0.00 0.00 0.00 37 1005.9
20260901035802 77 269 2.0 5.0 0.00 0.00 0.00 38 1005.9
20260901035703 77 262 2.0 5.0 0.00 0.00 0.00 37 1005.9
20260901035605 77 267 2.0 5.0 0.00 0.00 0.00 37 1005.8
20260901035503 77 250 1.0 5.0 0.00 0.00 0.00 38 1005.8
20260901035401 77 272 1.0 3.0 0.00 0.00 0.00 38 1005.8
20260901035305 77 259 2.0 4.0 0.00 0.00 0.00 37 1005.8
20260901035201 77 297 2.0 4.0 0.00 0.00 0.00 37 1005.8
20260901035103 77 242 1.0 4.0 0.00 0.00 0.00 37 1005.8
20260901035001 77 277 2.0 4.0 0.00 0.00 0.00 37 1005.8
20260901034902 77 256 2.0 4.0 0.00 0.00 0.00 37 1005.8
20260901034801 77 253 2.0 4.0 0.00 0.00 0.00 37 1005.8
20260901034702 77 267 2.0 7.0 0.00 0.00 0.00 37 1005.7
20260901034603 77 298 2.0 7.0 0.00 0.00 0.00 37 1005.8
20260901034503 77 267 2.0 7.0 0.00 0.00 0.00 37 1005.7
20260901034401 77 314 2.0 7.0 0.00 0.00 0.00 37 1005.7
20260901034302 77 292 2.0 7.0 0.00 0.00 0.00 37 1005.7
20260901034215 78 284 2.0 7.0 0.00 0.00 0.00 37 1005.6
20260901034154 78 290 2.0 7.0 0.00 0.00 0.00 37 1005.7
20260901034116 78 270 2.0 7.0 0.00 0.00 0.00 37 1005.6
20260901034057 78 286 3.0 7.0 0.00 0.00 0.00 37 1005.6
20260901034036 78 275 2.0 7.0 0.00 0.00 0.00 37 1005.6
20260901033745 78 275 2.0 6.0 0.00 0.00 0.00 37 1005.6
20260901033401 78 305 2.0 6.0 0.00 0.00 0.00 37 1005.6
20260901033331 78 290 2.0 6.0 0.00 0.00 0.00 37 1005.6
20260901033307 78 294 2.0 6.0 0.00 0.00 0.00 37 1005.7
20260901033247 78 289 2.0 4.0 0.00 0.00 0.00 37 1005.6
20260901032907 78 300 2.0 7.0 0.00 0.00 0.00 37 1005.6
20260901032803 78 281 2.0 7.0 0.00 0.00 0.00 37 1005.6
20260901032702 78 300 2.0 7.0 0.00 0.00 0.00 37 1005.6
20260901032611 78 298 2.0 7.0 0.00 0.00 0.00 37 1005.6
20260901032500 78 269 2.0 7.0 0.00 0.00 0.00 37 1005.6
20260901032357 78 265 2.0 7.0 0.00 0.00 0.00 38 1005.6
20260901032259 78 273 2.0 7.0 0.00 0.00 0.00 37 1005.6
20260901032156 78 257 2.0 7.0 0.00 0.00 0.00 38 1005.6
20260901032121 78 293 2.0 7.0 0.00 0.00 0.00 38 1005.6
20260901032045 78 265 1.0 7.0 0.00 0.00 0.00 37 1005.6
20260901032024 78 275 2.0 4.0 0.00 0.00 0.00 38 1005.6
20260901031658 78 267 2.0 4.0 0.00 0.00 0.00 37 1005.6
20260901031620 78 257 1.0 4.0 0.00 0.00 0.00 37 1005.6
20260901031544 78 297 2.0 4.0 0.00 0.00 0.00 37 1005.5
20260901031523 78 285 2.0 4.0 0.00 0.00 0.00 37 1005.5
20260901031202 78 290 1.0 3.0 0.00 0.00 0.00 37 1005.5
20260901031140 79 284 1.0 3.0 0.00 0.00 0.00 37 1005.5
20260901031103 79 273 1.0 3.0 0.00 0.00 0.00 37 1005.6
20260901031043 79 290 1.0 3.0 0.00 0.00 0.00 37 1005.5
20260901031021 79 279 2.0 3.0 0.00 0.00 0.00 37 1005.5
20260901030726 79 281 1.0 4.0 0.00 0.00 0.00 36 1005.5
20260901030341 79 269 1.0 4.0 0.00 0.00 0.00 36 1005.4
20260901030243 79 273 1.0 4.0 0.00 0.00 0.00 36 1005.4
20260901030134 79 271 1.0 4.0 0.00 0.00 0.00 36 1005.4
20260901030038 79 287 1.0 4.0 0.00 0.00 0.00 36 1005.4
20260901025934 80 265 1.0 4.0 0.00 0.00 0.00 36 1005.4
20260901025832 80 280 2.0 4.0 0.00 0.00 0.00 36 1005.4
20260901025730 80 289 2.0 4.0 0.00 0.00 0.00 36 1005.4
20260901025631 80 315 2.0 4.0 0.00 0.00 0.00 36 1005.4
20260901025529 80 277 2.0 4.0 0.00 0.00 0.00 36 1005.4
20260901025431 80 294 2.0 4.0 0.00 0.00 0.00 35 1005.4
20260901025329 80 275 1.0 4.0 0.00 0.00 0.00 36 1005.4
20260901025232 80 288 1.0 4.0 0.00 0.00 0.00 36 1005.4
20260901025129 80 292 1.0 4.0 0.00 0.00 0.00 35 1005.5
20260901025032 80 269 1.0 4.0 0.00 0.00 0.00 36 1005.4
20260901024929 80 265 0.0 4.0 0.00 0.00 0.00 35 1005.5
20260901024830 80 288 0.0 4.0 0.00 0.00 0.00 35 1005.5
20260901024729 80 288 1.0 4.0 0.00 0.00 0.00 35 1005.5
20260901024632 80 295 2.0 4.0 0.00 0.00 0.00 35 1005.5
20260901024521 80 277 2.0 4.0 0.00 0.00 0.00 35 1005.5
20260901024434 80 311 2.0 4.0 0.00 0.00 0.00 35 1005.5
20260901024410 80 292 2.0 4.0 0.00 0.00 0.00 35 1005.5
20260901024350 80 287 1.0 4.0 0.00 0.00 0.00 35 1005.5
20260901024018 81 292 1.0 4.0 0.00 0.00 0.00 35 1005.5
20260901023929 81 259 1.0 4.0 0.00 0.00 0.00 35 1005.5
20260901023907 81 253 1.0 4.0 0.00 0.00 0.00 35 1005.5
20260901023846 81 277 1.0 4.0 0.00 0.00 0.00 35 1005.5
20260901023527 81 280 1.0 4.0 0.00 0.00 0.00 35 1005.5
20260901023505 81 303 2.0 4.0 0.00 0.00 0.00 35 1005.5
20260901023443 81 284 2.0 4.0 0.00 0.00 0.00 35 1005.5
20260901023122 81 263 2.0 4.0 0.00 0.00 0.00 35 1005.5
20260901023046 82 290 2.0 3.0 0.00 0.00 0.00 35 1005.5
20260901023025 82 308 2.0 3.0 0.00 0.00 0.00 35 1005.5
20260901023005 82 273 1.0 2.0 0.00 0.00 0.00 35 1005.5
20260901022712 82 284 1.0 2.0 0.00 0.00 0.00 34 1005.5
20260901022636 82 276 1.0 2.0 0.00 0.00 0.00 34 1005.5
20260901022614 82 277 1.0 2.0 0.00 0.00 0.00 34 1005.5
20260901022552 82 288 2.0 3.0 0.00 0.00 0.00 35 1005.5
20260901022533 82 281 1.0 5.0 0.00 0.00 0.00 34 1005.5
20260901022512 83 283 1.0 5.0 0.00 0.00 0.00 34 1005.5
20260901022440 83 261 1.0 5.0 0.00 0.00 0.00 34 1005.6
20260901022418 83 287 1.0 5.0 0.00 0.00 0.00 33 1005.6
20260901022355 83 286 1.0 5.0 0.00 0.00 0.00 34 1005.5
20260901022106 83 333 1.0 5.0 0.00 0.00 0.00 34 1005.6
20260901022033 83 293 2.0 5.0 0.00 0.00 0.00 33 1005.5
20260901022013 83 293 2.0 5.0 0.00 0.00 0.00 33 1005.5
20260901020900 84 300 2.0 3.0 0.00 0.00 0.00 33 1005.5
20260901020802 84 281 2.0 3.0 0.00 0.00 0.00 33 1005.6
20260901020701 84 330 2.0 4.0 0.00 0.00 0.00 33 1005.6
20260901020612 84 300 2.0 4.0 0.00 0.00 0.00 32 1005.6
20260901020534 84 301 1.0 4.0 0.00 0.00 0.00 32 1005.6
20260901020512 84 273 1.0 4.0 0.00 0.00 0.00 32 1005.6
20260901020450 84 336 2.0 4.0 0.00 0.00 0.00 33 1005.6
20260901020432 84 304 2.0 4.0 0.00 0.00 0.00 33 1005.7
20260901020408 84 350 2.0 4.0 0.00 0.00 0.00 33 1005.7
20260901020101 85 231 2.0 4.0 0.00 0.00 0.00 32 1005.7
20260901015806 85 316 1.0 4.0 0.00 0.00 0.00 33 1005.7
20260901015747 85 288 1.0 4.0 0.00 0.00 0.00 32 1005.6
20260901015403 85 280 2.0 4.0 0.00 0.00 0.00 33 1005.7
20260901015300 85 294 3.0 4.0 0.00 0.00 0.00 32 1005.7
20260901015201 85 306 2.0 4.0 0.00 0.00 0.00 32 1005.7
20260901015101 85 304 1.0 4.0 0.00 0.00 0.00 32 1005.7
20260901015014 85 347 1.0 4.0 0.00 0.00 0.00 32 1005.7
20260901014914 85 267 2.0 4.0 0.00 0.00 0.00 32 1005.7
20260901014851 85 296 2.0 4.0 0.00 0.00 0.00 32 1005.7
20260901014832 85 292 2.0 4.0 0.00 0.00 0.00 32 1005.8
20260901014530 85 285 2.0 4.0 0.00 0.00 0.00 32 1005.8
20260901014454 85 266 2.0 4.0 0.00 0.00 0.00 32 1005.8
20260901014433 85 289 1.0 4.0 0.00 0.00 0.00 32 1005.7
20260901014138 85 273 2.0 4.0 0.00 0.00 0.00 32 1005.8
20260901014119 85 273 2.0 4.0 0.00 0.00 0.00 32 1005.8
20260901014042 85 269 1.0 4.0 0.00 0.00 0.00 31 1005.8
20260901014021 85 334 1.0 4.0 0.00 0.00 0.00 32 1005.8
20260901014002 85 352 1.0 4.0 0.00 0.00 0.00 31 1005.8
20260901013939 85 298 1.0 4.0 0.00 0.00 0.00 32 1005.8
20260901013637 85 352 2.0 6.0 0.00 0.00 0.00 31 1005.8
20260901013614 85 340 2.0 6.0 0.00 0.00 0.00 32 1005.9
20260901013325 86 302 1.0 6.0 0.00 0.00 0.00 31 1005.9
20260901013305 86 315 2.0 6.0 0.00 0.00 0.00 31 1005.9
20260901013000 86 335 2.0 6.0 0.00 0.00 0.00 31 1005.9
20260901012939 86 316 2.0 6.0 0.00 0.00 0.00 31 1005.9
20260901012916 86 323 1.0 6.0 0.00 0.00 0.00 31 1005.9
20260901012338 86 341 2.0 6.0 0.00 0.00 0.00 31 1006.0
20260901012317 86 5 2.0 6.0 0.00 0.00 0.00 31 1006.0
20260901012257 86 290 2.0 6.0 0.00 0.00 0.00 31 1006.0
20260901011953 86 308 2.0 6.0 0.00 0.00 0.00 31 1006.0
20260901011933 86 352 2.0 6.0 0.00 0.00 0.00 31 1006.0
20260901011601 86 315 2.0 5.0 0.00 0.00 0.00 31 1006.0
20260901011502 86 263 2.0 5.0 0.00 0.00 0.00 31 1006.0
20260901011401 86 346 2.0 5.0 0.00 0.00 0.00 31 1006.1
20260901011301 86 294 3.0 5.0 0.00 0.00 0.00 30 1006.0
20260901011202 86 332 3.0 5.0 0.00 0.00 0.00 30 1006.1
20260901011103 86 0 2.0 7.0 0.00 0.00 0.00 30 1006.0
20260901011001 86 343 2.0 7.0 0.00 0.00 0.00 31 1006.1
20260901010901 86 297 2.0 7.0 0.00 0.00 0.00 31 1006.1
20260901010801 86 13 3.0 7.0 0.00 0.00 0.00 31 1006.1
20260901010701 86 306 2.0 7.0 0.00 0.00 0.00 31 1006.1
20260901010630 86 280 2.0 7.0 0.00 0.00 0.00 30 1006.1
20260901010604 86 321 2.0 7.0 0.00 0.00 0.00 30 1006.1
20260901010533 86 335 3.0 7.0 0.00 0.00 0.00 31 1006.1
20260901010229 86 313 4.0 7.0 0.00 0.00 0.00 30 1006.0
20260901010206 86 300 3.0 7.0 0.00 0.00 0.00 30 1006.1
20260901010143 86 277 2.0 7.0 0.00 0.00 0.00 30 1006.1
20260901005758 86 281 3.0 7.0 0.00 0.00 0.00 30 1006.1
20260901005657 86 293 2.0 7.0 0.00 0.00 0.00 30 1006.1
20260901005608 86 280 2.0 6.0 0.00 0.00 0.00 31 1006.1
20260901005545 86 291 3.0 6.0 0.00 0.00 0.00 30 1006.1
20260901005511 86 298 3.0 6.0 0.00 0.00 0.00 30 1006.1
20260901005449 86 290 2.0 6.0 0.00 0.00 0.00 30 1006.1
20260901005429 86 348 3.0 8.0 0.00 0.00 0.00 30 1006.1
20260901005406 86 330 2.0 8.0 0.00 0.00 0.00 30 1006.2
20260901005104 86 326 1.0 8.0 0.00 0.00 0.00 30 1006.2
20260901004812 86 316 3.0 8.0 0.00 0.00 0.00 30 1006.2
20260901004752 86 9 3.0 8.0 0.00 0.00 0.00 30 1006.2
20260901004729 86 292 3.0 8.0 0.00 0.00 0.00 30 1006.2
20260901004655 86 295 4.0 8.0 0.00 0.00 0.00 30 1006.2
20260901004631 86 281 3.0 8.0 0.00 0.00 0.00 30 1006.3
20260901004340 86 323 3.0 8.0 0.00 0.00 0.00 31 1006.2
20260901004320 86 275 4.0 8.0 0.00 0.00 0.00 31 1006.2
20260901004243 86 293 5.0 8.0 0.00 0.00 0.00 30 1006.2
20260901003956 86 285 3.0 8.0 0.00 0.00 0.00 31 1006.3
20260901003935 86 326 4.0 7.0 0.00 0.00 0.00 30 1006.3
20260901003913 86 284 4.0 7.0 0.00 0.00 0.00 30 1006.3
20260901003606 86 291 2.0 7.0 0.00 0.00 0.00 30 1006.3
20260901003546 86 325 2.0 7.0 0.00 0.00 0.00 30 1006.3
20260901003524 86 313 3.0 7.0 0.00 0.00 0.00 30 1006.4
20260901003504 86 294 2.0 7.0 0.00 0.00 0.00 30 1006.4
20260901003429 86 11 2.0 7.0 0.00 0.00 0.00 31 1006.3
20260901003407 86 296 2.0 7.0 0.00 0.00 0.00 31 1006.4
20260901003345 86 305 3.0 7.0 0.00 0.00 0.00 31 1006.4
20260901003325 86 347 3.0 7.0 0.00 0.00 0.00 31 1006.4
20260901003303 86 295 3.0 7.0 0.00 0.00 0.00 31 1006.5
20260901002731 86 310 3.0 8.0 0.00 0.00 0.00 32 1006.5
20260901002709 86 327 2.0 8.0 0.00 0.00 0.00 31 1006.5
20260901002646 86 286 2.0 8.0 0.00 0.00 0.00 32 1006.5
20260901002611 86 286 2.0 8.0 0.00 0.00 0.00 32 1006.5
20260901001540 86 13 2.0 8.0 0.00 0.00 0.00 31 1006.7
20260901001519 86 288 1.0 8.0 0.00 0.00 0.00 32 1006.7
20260901001458 86 352 2.0 8.0 0.00 0.00 0.00 31 1006.8
20260901001438 86 311 4.0 8.0 0.00 0.00 0.00 31 1006.8
20260901001417 86 266 4.0 8.0 0.00 0.00 0.00 31 1006.8
20260901000843 86 333 5.0 8.0 0.00 0.00 0.00 31 1006.9
20260901000550 86 33 2.0 8.0 0.00 0.00 0.00 30 1006.9
20260901000516 86 22 2.0 8.0 0.00 0.00 0.00 31 1006.9
20260901000221 86 34 4.0 9.0 0.00 0.00 0.00 30 1006.9
20260901000157 86 21 3.0 9.0 0.00 0.00 0.00 30 1006.9
20260831235852 86 319 3.0 9.0 0.00 0.00 0.00 30 1006.9
20260831235829 86 305 4.0 9.0 0.00 0.00 0.00 30 1007.0
20260831235808 86 9 3.0 9.0 0.00 0.00 0.00 30 1007.1
20260831235745 86 290 3.0 9.0 0.00 0.00 0.00 30 1007.1
20260831235722 86 309 4.0 9.0 0.00 0.00 0.00 30 1007.1
20260831235109 86 277 2.0 8.0 0.00 0.00 0.00 31 1007.2
20260831235010 86 309 3.0 8.0 0.00 0.00 0.00 31 1007.2
20260831234921 86 352 4.0 8.0 0.00 0.00 0.00 31 1007.2
20260831234808 86 309 3.0 8.0 0.00 0.00 0.00 31 1007.2
20260831234708 86 17 3.0 8.0 0.00 0.00 0.00 31 1007.3
20260831234633 86 311 3.0 8.0 0.00 0.00 0.00 31 1007.3
20260831234609 86 298 3.0 8.0 0.00 0.00 0.00 31 1007.3
20260831234547 86 309 4.0 8.0 0.00 0.00 0.00 31 1007.3
20260831234201 86 323 4.0 8.0 0.00 0.00 0.00 31 1007.3
20260831234102 86 342 3.0 8.0 0.00 0.00 0.00 32 1007.3
20260831234001 86 348 2.0 8.0 0.00 0.00 0.00 31 1007.3
20260831233902 86 46 3.0 7.0 0.00 0.00 0.00 32 1007.4
20260831233801 86 342 3.0 7.0 0.00 0.00 0.00 31 1007.4
20260831233727 86 292 4.0 8.0 0.00 0.00 0.00 31 1007.4
20260831233704 86 311 4.0 8.0 0.00 0.00 0.00 31 1007.4
20260831233642 86 0 2.0 8.0 0.00 0.00 0.00 31 1007.4
20260831233258 86 309 2.0 8.0 0.00 0.00 0.00 32 1007.5
20260831233157 86 345 2.0 8.0 0.00 0.00 0.00 32 1007.5
20260831233057 85 306 2.0 8.0 0.00 0.00 0.00 32 1007.5
20260831232956 85 327 3.0 8.0 0.00 0.00 0.00 32 1007.6
20260831232855 85 311 4.0 8.0 0.00 0.00 0.00 32 1007.6
20260831232811 85 350 3.0 8.0 0.00 0.00 0.00 31 1007.6
20260831232747 85 268 3.0 8.0 0.00 0.00 0.00 31 1007.6
20260831232727 85 338 4.0 8.0 0.00 0.00 0.00 32 1007.6
20260831232353 85 325 4.0 8.0 0.00 0.00 0.00 31 1007.7
20260831232252 85 352 3.0 8.0 0.00 0.00 0.00 31 1007.7
20260831232151 85 352 3.0 8.0 0.00 0.00 0.00 32 1007.7
20260831232051 85 0 4.0 8.0 0.00 0.00 0.00 32 1007.8
20260831231953 85 325 4.0 8.0 0.00 0.00 0.00 31 1007.8
20260831231913 85 307 4.0 10.0 0.00 0.00 0.00 31 1007.7
20260831231851 85 333 2.0 10.0 0.00 0.00 0.00 32 1007.8
20260831231830 85 329 2.0 10.0 0.00 0.00 0.00 33 1007.8
20260831231809 85 298 3.0 10.0 0.00 0.00 0.00 32 1007.8
20260831231746 85 15 4.0 10.0 0.00 0.00 0.00 31 1007.8
20260831231711 85 9 2.0 10.0 0.00 0.00 0.00 31 1007.9
20260831231148 85 291 4.0 10.0 0.00 0.00 0.00 31 1007.9
20260831231130 85 307 3.0 10.0 0.00 0.00 0.00 32 1007.9
20260831230744 85 295 3.0 9.0 0.00 0.00 0.00 32 1007.9
20260831230710 85 315 3.0 9.0 0.00 0.00 0.00 32 1007.9
20260831230648 85 273 3.0 9.0 0.00 0.00 0.00 32 1007.9
20260831230625 85 342 3.0 9.0 0.00 0.00 0.00 32 1007.9
20260831230240 85 352 3.0 9.0 0.00 0.00 0.00 32 1008.0
20260831230139 85 292 3.0 9.0 0.00 0.00 0.00 32 1008.0
20260831230039 85 287 3.0 9.0 0.00 0.00 0.00 33 1008.0
20260831225938 85 5 3.0 9.0 0.00 0.00 0.00 33 1008.0
20260831225837 85 315 3.0 9.0 0.00 0.00 0.00 33 1008.0
20260831225737 85 270 4.0 8.0 0.00 0.00 0.00 31 1008.0
20260831225636 85 287 4.0 8.0 0.00 0.00 0.00 32 1008.0
20260831225538 85 265 2.0 8.0 0.00 0.00 0.00 32 1008.0
20260831225436 85 5 2.0 8.0 0.00 0.00 0.00 33 1008.0
20260831225335 85 296 3.0 8.0 0.00 0.00 0.00 33 1008.1
20260831225247 85 318 4.0 8.0 0.00 0.00 0.00 32 1008.1
20260831225221 85 290 4.0 9.0 0.00 0.00 0.00 32 1008.1
20260831225202 85 304 3.0 9.0 0.00 0.00 0.00 32 1008.1
20260831224829 85 321 3.0 9.0 0.00 0.00 0.00 33 1008.2
20260831224729 85 85 4.0 9.0 0.00 0.00 0.00 33 1008.1
20260831224629 85 278 4.0 9.0 0.00 0.00 0.00 32 1008.1
20260831224529 85 310 3.0 9.0 0.00 0.00 0.00 32 1008.2
20260831224429 85 284 4.0 9.0 0.00 0.00 0.00 33 1008.2
20260831224331 85 346 4.0 9.0 0.00 0.00 0.00 33 1008.2
20260831224229 85 352 3.0 9.0 0.00 0.00 0.00 33 1008.2
20260831224129 85 348 2.0 9.0 0.00 0.00 0.00 33 1008.2
20260831224028 85 342 3.0 9.0 0.00 0.00 0.00 33 1008.3
20260831223929 84 40 2.0 9.0 0.00 0.00 0.00 34 1008.3
20260831223850 84 289 2.0 9.0 0.00 0.00 0.00 33 1008.2
20260831223828 84 298 3.0 9.0 0.00 0.00 0.00 33 1008.3
20260831223806 84 322 4.0 9.0 0.00 0.00 0.00 32 1008.3
20260831223744 84 336 4.0 9.0 0.00 0.00 0.00 32 1008.4
20260831223720 84 25 4.0 9.0 0.00 0.00 0.00 32 1008.4
20260831223417 84 314 3.0 9.0 0.00 0.00 0.00 33 1008.4
20260831223125 84 307 4.0 9.0 0.00 0.00 0.00 33 1008.4
20260831223104 84 244 4.0 9.0 0.00 0.00 0.00 33 1008.5
20260831222721 84 16 4.0 9.0 0.00 0.00 0.00 34 1008.5
20260831222620 84 310 3.0 9.0 0.00 0.00 0.00 35 1008.5
20260831222528 84 339 3.0 6.0 0.00 0.00 0.00 33 1008.5
20260831222505 84 18 2.0 6.0 0.00 0.00 0.00 35 1008.5
20260831222430 84 15 3.0 6.0 0.00 0.00 0.00 34 1008.6
20260831222408 84 5 3.0 6.0 0.00 0.00 0.00 33 1008.6
20260831222349 84 17 3.0 6.0 0.00 0.00 0.00 34 1008.6
20260831222326 83 22 2.0 6.0 0.00 0.00 0.00 35 1008.6
20260831221715 83 27 3.0 6.0 0.00 0.00 0.00 32 1008.6
20260831221614 83 40 3.0 6.0 0.00 0.00 0.00 34 1008.7
20260831221515 83 350 3.0 6.0 0.00 0.00 0.00 34 1008.7
20260831221414 83 49 2.0 6.0 0.00 0.00 0.00 33 1008.7
20260831221313 83 350 3.0 6.0 0.00 0.00 0.00 33 1008.7
20260831221214 83 341 3.0 6.0 0.00 0.00 0.00 33 1008.7
20260831221113 83 305 3.0 6.0 0.00 0.00 0.00 34 1008.8
20260831221011 83 28 3.0 8.0 0.00 0.00 0.00 35 1008.8
20260831220910 83 321 3.0 8.0 0.00 0.00 0.00 35 1008.9
20260831220810 83 298 3.0 8.0 0.00 0.00 0.00 35 1008.9
20260831220708 83 333 3.0 8.0 0.00 0.00 0.00 35 1008.9
20260831220608 83 286 3.0 8.0 0.00 0.00 0.00 35 1008.9
20260831220506 83 285 4.0 8.0 0.00 0.00 0.00 34 1008.9
20260831220406 83 333 4.0 8.0 0.00 0.00 0.00 34 1008.9
20260831220306 83 345 4.0 8.0 0.00 0.00 0.00 33 1008.9
20260831220205 83 348 4.0 8.0 0.00 0.00 0.00 34 1009.0
20260831220105 83 343 4.0 8.0 0.00 0.00 0.00 33 1008.9
20260831220004 83 294 3.0 8.0 0.00 0.00 0.00 34 1009.0
20260831215904 83 18 2.0 8.0 0.00 0.00 0.00 36 1009.0
20260831215804 83 352 2.0 8.0 0.00 0.00 0.00 35 1009.0
20260831215703 83 9 2.0 8.0 0.00 0.00 0.00 37 1009.0
20260831215620 83 28 2.0 8.0 0.00 0.00 0.00 36 1009.0
20260831215556 83 300 3.0 8.0 0.00 0.00 0.00 34 1009.1
20260831215534 82 300 3.0 8.0 0.00 0.00 0.00 35 1009.1
20260831215457 82 298 4.0 8.0 0.00 0.00 0.00 36 1009.1
20260831215436 82 325 4.0 8.0 0.00 0.00 0.00 35 1009.1
20260831215416 82 296 4.0 8.0 0.00 0.00 0.00 35 1009.2
20260831215124 82 309 3.0 8.0 0.00 0.00 0.00 35 1009.2
20260831215049 82 333 3.0 8.0 0.00 0.00 0.00 35 1009.3
20260831215026 82 23 3.0 8.0 0.00 0.00 0.00 36 1009.3
20260831214737 82 346 3.0 8.0 0.00 0.00 0.00 35 1009.4
20260831214714 82 9 4.0 8.0 0.00 0.00 0.00 36 1009.3
20260831214128 82 309 4.0 9.0 0.00 0.00 0.00 35 1009.4
20260831214105 82 286 3.0 9.0 0.00 0.00 0.00 35 1009.4
20260831214044 82 294 2.0 9.0 0.00 0.00 0.00 35 1009.4
20260831213704 82 284 3.0 9.0 0.00 0.00 0.00 34 1009.4
20260831213602 82 352 3.0 9.0 0.00 0.00 0.00 35 1009.5
20260831213501 82 26 4.0 9.0 0.00 0.00 0.00 35 1009.5
20260831213401 82 304 4.0 9.0 0.00 0.00 0.00 36 1009.5
20260831213312 82 304 2.0 9.0 0.00 0.00 0.00 35 1009.6
20260831213201 82 333 2.0 7.0 0.00 0.00 0.00 38 1009.5
20260831213124 82 352 2.0 7.0 0.00 0.00 0.00 37 1009.5
20260831213102 82 321 1.0 7.0 0.00 0.00 0.00 35 1009.6
20260831213042 81 5 1.0 7.0 0.00 0.00 0.00 36 1009.6
20260831212714 81 232 3.0 7.0 0.00 0.00 0.00 35 1009.6
20260831212651 81 319 3.0 7.0 0.00 0.00 0.00 36 1009.6
20260831212629 81 5 2.0 7.0 0.00 0.00 0.00 36 1009.7
20260831212607 81 35 3.0 5.0 0.00 0.00 0.00 37 1009.7
20260831212545 81 299 4.0 5.0 0.00 0.00 0.00 37 1009.7
20260831212240 81 0 2.0 5.0 0.00 0.00 0.00 36 1009.7
20260831212221 81 350 2.0 5.0 0.00 0.00 0.00 36 1009.7
20260831212204 81 61 2.0 8.0 0.00 0.00 0.00 35 1009.7
20260831211901 81 18 2.0 8.0 0.00 0.00 0.00 36 1009.8
20260831211839 81 352 2.0 8.0 0.00 0.00 0.00 36 1009.8
20260831211817 81 15 3.0 8.0 0.00 0.00 0.00 37 1009.8
20260831211756 81 320 3.0 8.0 0.00 0.00 0.00 37 1009.8
20260831211734 81 346 2.0 8.0 0.00 0.00 0.00 36 1009.9
20260831211700 81 330 4.0 8.0 0.00 0.00 0.00 36 1009.9
20260831211640 81 291 4.0 8.0 0.00 0.00 0.00 37 1009.9
20260831211352 81 5 2.0 6.0 0.00 0.00 0.00 36 1009.9
20260831211329 81 14 2.0 6.0 0.00 0.00 0.00 37 1009.9
20260831210756 81 336 2.0 6.0 0.00 0.00 0.00 36 1009.9
20260831210732 81 352 2.0 6.0 0.00 0.00 0.00 36 1009.9
20260831210713 81 318 2.0 6.0 0.00 0.00 0.00 36 1009.9
20260831210408 80 33 2.0 6.0 0.00 0.00 0.00 37 1010.1
20260831210115 80 350 3.0 6.0 0.00 0.00 0.00 37 1010.1
20260831205809 80 24 3.0 6.0 0.00 0.00 0.00 38 1010.1
20260831205748 80 352 4.0 8.0 0.00 0.00 0.00 38 1010.2
20260831205726 80 276 4.0 8.0 0.00 0.00 0.00 37 1010.2
20260831205703 80 291 3.0 8.0 0.00 0.00 0.00 37 1010.3
20260831205049 80 5 3.0 8.0 0.00 0.00 0.00 37 1010.3
20260831204949 80 296 3.0 8.0 0.00 0.00 0.00 36 1010.3
20260831204850 80 305 4.0 8.0 0.00 0.00 0.00 35 1010.4
20260831204754 80 269 4.0 8.0 0.00 0.00 0.00 36 1010.3
20260831204647 80 299 3.0 8.0 0.00 0.00 0.00 36 1010.4
20260831204603 80 333 3.0 6.0 0.00 0.00 0.00 36 1010.4
20260831204540 80 80 2.0 6.0 0.00 0.00 0.00 36 1010.4
20260831204519 80 0 1.0 7.0 0.00 0.00 0.00 36 1010.5
20260831204144 79 262 2.0 8.0 0.00 0.00 0.00 36 1010.5
20260831204100 79 235 2.0 8.0 0.00 0.00 0.00 36 1010.5
20260831204037 79 287 3.0 8.0 0.00 0.00 0.00 38 1010.5
20260831204014 79 288 3.0 8.0 0.00 0.00 0.00 37 1010.6
20260831203637 79 352 3.0 8.0 0.00 0.00 0.00 37 1010.6
20260831203555 79 318 4.0 8.0 0.00 0.00 0.00 37 1010.5
20260831203533 79 296 4.0 8.0 0.00 0.00 0.00 37 1010.5
20260831203512 79 270 3.0 8.0 0.00 0.00 0.00 37 1010.6
20260831203133 79 276 3.0 6.0 0.00 0.00 0.00 36 1010.6
20260831203033 79 306 3.0 6.0 0.00 0.00 0.00 37 1010.7
20260831202932 79 311 3.0 6.0 0.00 0.00 0.00 36 1010.7
20260831202830 79 265 3.0 6.0 0.00 0.00 0.00 38 1010.7
20260831202741 79 336 4.0 6.0 0.00 0.00 0.00 37 1010.6
20260831202629 79 26 3.0 6.0 0.00 0.00 0.00 38 1010.7
20260831202531 79 341 2.0 6.0 0.00 0.00 0.00 38 1010.7
20260831202430 79 331 3.0 6.0 0.00 0.00 0.00 38 1010.7
20260831202353 78 314 2.0 6.0 0.00 0.00 0.00 38 1010.7
20260831202331 78 261 1.0 6.0 0.00 0.00 0.00 39 1010.7
20260831202258 78 330 1.0 6.0 0.00 0.00 0.00 37 1010.8
20260831201929 78 36 2.0 6.0 0.00 0.00 0.00 40 1010.8
20260831201828 78 9 1.0 6.0 0.00 0.00 0.00 40 1010.8
20260831201735 78 299 2.0 6.0 0.00 0.00 0.00 40 1010.8
20260831201629 78 317 3.0 6.0 0.00 0.00 0.00 38 1010.9
20260831201532 78 310 2.0 6.0 0.00 0.00 0.00 38 1010.9
20260831201429 78 269 2.0 6.0 0.00 0.00 0.00 39 1010.9
20260831201328 78 259 2.0 6.0 0.00 0.00 0.00 40 1011.0
20260831201234 78 24 2.0 6.0 0.00 0.00 0.00 38 1011.0
20260831201128 77 96 2.0 6.0 0.00 0.00 0.00 37 1011.0
20260831201029 77 11 1.0 6.0 0.00 0.00 0.00 39 1011.0
20260831200929 77 308 2.0 6.0 0.00 0.00 0.00 39 1011.0
20260831200829 77 71 2.0 6.0 0.00 0.00 0.00 39 1011.1
20260831200731 77 334 3.0 6.0 0.00 0.00 0.00 38 1011.1
20260831200647 77 285 4.0 6.0 0.00 0.00 0.00 39 1011.1
20260831200623 77 283 3.0 6.0 0.00 0.00 0.00 39 1011.1
20260831200553 77 0 2.0 6.0 0.00 0.00 0.00 39 1011.2
20260831200532 76 351 3.0 6.0 0.00 0.00 0.00 38 1011.2
20260831200510 76 325 3.0 6.0 0.00 0.00 0.00 41 1011.2
20260831200206 76 17 3.0 7.0 0.00 0.00 0.00 39 1011.3
20260831200143 76 348 3.0 7.0 0.00 0.00 0.00 41 1011.3
20260831195849 76 311 3.0 8.0 0.00 0.00 0.00 41 1011.3
20260831195815 76 268 2.0 8.0 0.00 0.00 0.00 41 1011.3
20260831195521 76 80 3.0 9.0 0.00 0.00 0.00 41 1011.3
20260831195459 76 5 4.0 9.0 0.00 0.00 0.00 40 1011.4
20260831195131 76 73 3.0 9.0 0.00 0.00 0.00 41 1011.4
20260831195029 76 343 3.0 9.0 0.00 0.00 0.00 41 1011.5
20260831194955 76 69 4.0 9.0 0.00 0.00 0.00 41 1011.5
20260831194933 76 309 4.0 9.0 0.00 0.00 0.00 41 1011.5
20260831194912 76 332 4.0 9.0 0.00 0.00 0.00 41 1011.6
20260831194552 76 30 3.0 9.0 0.00 0.00 0.00 42 1011.6
20260831194528 76 27 2.0 5.0 0.00 0.00 0.00 42 1011.6
20260831194509 76 280 2.0 5.0 0.00 0.00 0.00 43 1011.7
20260831194449 76 350 2.0 5.0 0.00 0.00 0.00 44 1011.7
20260831194416 76 60 1.0 6.0 0.00 0.00 0.00 43 1011.7
20260831194122 76 32 3.0 7.0 0.00 0.00 0.00 41 1011.7
20260831194103 76 61 2.0 7.0 0.00 0.00 0.00 41 1011.7
20260831194040 76 33 2.0 7.0 0.00 0.00 0.00 43 1011.8
20260831193429 75 290 1.0 7.0 0.00 0.00 0.00 44 1011.8
20260831193330 75 63 2.0 7.0 0.00 0.00 0.00 43 1011.8
20260831193231 75 74 3.0 7.0 0.00 0.00 0.00 43 1011.9
20260831193129 75 71 3.0 7.0 0.00 0.00 0.00 42 1011.9
20260831193043 75 95 4.0 6.0 0.00 0.00 0.00 42 1011.9
20260831193019 75 82 3.0 5.0 0.00 0.00 0.00 43 1011.9
20260831192959 75 26 3.0 5.0 0.00 0.00 0.00 42 1011.9
20260831192629 75 348 2.0 5.0 0.00 0.00 0.00 44 1012.0
20260831192531 75 324 2.0 5.0 0.00 0.00 0.00 44 1012.0
20260831192428 75 334 1.0 5.0 0.00 0.00 0.00 45 1012.0
20260831192331 74 344 2.0 5.0 0.00 0.00 0.00 45 1012.0
20260831192229 74 328 2.0 5.0 0.00 0.00 0.00 43 1012.1
20260831192122 74 5 2.0 5.0 0.00 0.00 0.00 44 1012.1
20260831192057 74 352 2.0 5.0 0.00 0.00 0.00 43 1012.2
20260831192035 74 0 2.0 5.0 0.00 0.00 0.00 43 1012.2
20260831192015 74 274 3.0 5.0 0.00 0.00 0.00 44 1012.2
20260831191953 74 352 3.0 9.0 0.00 0.00 0.00 44 1012.3
20260831191916 74 345 2.0 9.0 0.00 0.00 0.00 46 1012.3
20260831191338 74 14 1.0 9.0 0.00 0.00 0.00 45 1012.4
20260831191315 74 251 2.0 9.0 0.00 0.00 0.00 45 1012.4
20260831191242 74 302 2.0 9.0 0.00 0.00 0.00 45 1012.4
20260831190921 74 300 3.0 9.0 0.00 0.00 0.00 47 1012.4
20260831190901 74 300 2.0 9.0 0.00 0.00 0.00 46 1012.5
20260831190838 73 66 2.0 8.0 0.00 0.00 0.00 44 1012.5
20260831190804 73 315 3.0 8.0 0.00 0.00 0.00 44 1012.5
20260831190741 74 33 3.0 8.0 0.00 0.00 0.00 45 1012.6
20260831190719 74 343 4.0 8.0 0.00 0.00 0.00 45 1012.6
20260831190658 74 348 3.0 8.0 0.00 0.00 0.00 45 1012.6
20260831190353 73 5 1.0 8.0 0.00 0.00 0.00 45 1012.6
20260831190330 73 296 1.0 8.0 0.00 0.00 0.00 45 1012.6
20260831185806 73 348 4.0 8.0 0.00 0.00 0.00 45 1012.6
20260831185733 73 295 4.0 8.0 0.00 0.00 0.00 45 1012.6
20260831185401 73 303 4.0 8.0 0.00 0.00 0.00 46 1012.6
20260831185306 73 304 4.0 8.0 0.00 0.00 0.00 47 1012.6
20260831185244 73 336 4.0 8.0 0.00 0.00 0.00 46 1012.6
20260831185210 73 302 3.0 8.0 0.00 0.00 0.00 47 1012.6
20260831185149 73 296 3.0 7.0 0.00 0.00 0.00 47 1012.6
20260831185128 73 303 2.0 9.0 0.00 0.00 0.00 47 1012.7
20260831185108 73 298 1.0 9.0 0.00 0.00 0.00 47 1012.7
20260831185046 73 285 2.0 9.0 0.00 0.00 0.00 49 1012.7
20260831185014 73 26 4.0 9.0 0.00 0.00 0.00 48 1012.7
20260831184951 72 310 4.0 9.0 0.00 0.00 0.00 47 1012.7
20260831184931 72 0 3.0 9.0 0.00 0.00 0.00 48 1012.7
20260831184641 72 302 4.0 9.0 0.00 0.00 0.00 48 1012.7
20260831184606 72 22 4.0 9.0 0.00 0.00 0.00 47 1012.7
20260831184547 72 346 2.0 9.0 0.00 0.00 0.00 48 1012.8
20260831184258 72 42 3.0 8.0 0.00 0.00 0.00 48 1012.8
20260831184234 72 0 3.0 8.0 0.00 0.00 0.00 48 1012.8
20260831183431 72 335 4.0 6.0 0.00 0.00 0.00 47 1012.9
20260831183101 72 13 3.0 6.0 0.00 0.00 0.00 48 1012.9
20260831183015 72 335 3.0 6.0 0.00 0.00 0.00 48 1012.9
20260831182952 72 350 2.0 6.0 0.00 0.00 0.00 47 1012.9
20260831182933 72 19 2.0 6.0 0.00 0.00 0.00 48 1012.9
20260831182602 71 309 3.0 6.0 0.00 0.00 0.00 47 1013.0
20260831182501 71 352 2.0 6.0 0.00 0.00 0.00 47 1013.0
20260831182402 71 350 2.0 6.0 0.00 0.00 0.00 48 1013.0
20260831182300 71 302 2.0 6.0 0.00 0.00 0.00 48 1013.1
20260831182203 71 26 2.0 6.0 0.00 0.00 0.00 48 1013.0
20260831182104 71 49 3.0 6.0 0.00 0.00 0.00 47 1013.0
20260831182003 71 40 3.0 6.0 0.00 0.00 0.00 49 1013.0
20260831181901 71 40 3.0 6.0 0.00 0.00 0.00 47 1013.0
20260831181802 71 24 3.0 5.0 0.00 0.00 0.00 47 1013.1
20260831181731 71 17 3.0 5.0 0.00 0.00 0.00 47 1013.1
20260831181655 71 342 2.0 5.0 0.00 0.00 0.00 47 1013.1
20260831181633 71 33 2.0 8.0 0.00 0.00 0.00 47 1013.1
20260831181301 71 292 3.0 8.0 0.00 0.00 0.00 47 1013.1
20260831181203 71 304 3.0 8.0 0.00 0.00 0.00 47 1013.2
20260831181105 71 315 3.0 8.0 0.00 0.00 0.00 47 1013.2
20260831181036 70 317 2.0 8.0 0.00 0.00 0.00 49 1013.2
20260831181015 70 316 2.0 8.0 0.00 0.00 0.00 49 1013.2
20260831180953 70 297 3.0 8.0 0.00 0.00 0.00 47 1013.2
20260831180932 70 345 3.0 8.0 0.00 0.00 0.00 49 1013.2
20260831180858 70 320 1.0 8.0 0.00 0.00 0.00 49 1013.2
20260831180833 70 304 1.0 8.0 0.00 0.00 0.00 50 1013.2
20260831180814 70 17 2.0 8.0 0.00 0.00 0.00 48 1013.2
20260831180523 70 61 3.0 8.0 0.00 0.00 0.00 49 1013.2
20260831180218 70 19 4.0 8.0 0.00 0.00 0.00 49 1013.2
20260831180157 70 348 4.0 8.0 0.00 0.00 0.00 50 1013.3
20260831180136 70 63 3.0 6.0 0.00 0.00 0.00 48 1013.3
20260831175834 70 337 2.0 7.0 0.00 0.00 0.00 50 1013.3
20260831175539 70 321 2.0 7.0 0.00 0.00 0.00 48 1013.3
20260831175517 70 67 2.0 7.0 0.00 0.00 0.00 48 1013.3
20260831175455 69 69 2.0 7.0 0.00 0.00 0.00 48 1013.4
20260831175421 69 50 2.0 7.0 0.00 0.00 0.00 49 1013.4
20260831175400 69 349 2.0 7.0 0.00 0.00 0.00 49 1013.4
20260831175341 69 28 3.0 7.0 0.00 0.00 0.00 49 1013.4
20260831175049 69 65 2.0 5.0 0.00 0.00 0.00 48 1013.4
20260831174743 69 16 2.0 5.0 0.00 0.00 0.00 50 1013.4
20260831174144 69 352 2.0 8.0 0.00 0.00 0.00 50 1013.4
20260831174044 69 29 2.0 8.0 0.00 0.00 0.00 50 1013.4
20260831173938 68 52 1.0 8.0 0.00 0.00 0.00 50 1013.5
20260831173847 68 344 1.0 8.0 0.00 0.00 0.00 50 1013.4
20260831173824 68 140 2.0 8.0 0.00 0.00 0.00 49 1013.4
20260831173802 68 43 3.0 8.0 0.00 0.00 0.00 51 1013.5
20260831173727 68 342 3.0 8.0 0.00 0.00 0.00 50 1013.5
20260831173700 68 5 3.0 8.0 0.00 0.00 0.00 50 1013.6
20260831173640 68 339 4.0 8.0 0.00 0.00 0.00 51 1013.6
20260831173618 68 305 3.0 7.0 0.00 0.00 0.00 50 1013.6
20260831173557 68 296 2.0 7.0 0.00 0.00 0.00 52 1013.6
20260831173249 67 344 2.0 5.0 0.00 0.00 0.00 52 1013.6
20260831172959 67 268 1.0 6.0 0.00 0.00 0.00 52 1013.6
20260831172655 67 339 2.0 6.0 0.00 0.00 0.00 51 1013.6
20260831172358 67 266 2.0 6.0 0.00 0.00 0.00 52 1013.6
20260831172336 67 352 2.0 6.0 0.00 0.00 0.00 52 1013.7
20260831172316 66 19 2.0 6.0 0.00 0.00 0.00 53 1013.7
20260831172242 66 318 3.0 6.0 0.00 0.00 0.00 51 1013.7
20260831172221 66 323 4.0 6.0 0.00 0.00 0.00 50 1013.7
20260831171932 66 352 2.0 4.0 0.00 0.00 0.00 52 1013.7
20260831171912 66 32 2.0 4.0 0.00 0.00 0.00 52 1013.7
20260831171605 66 348 2.0 4.0 0.00 0.00 0.00 51 1013.8
20260831171544 66 338 2.0 4.0 0.00 0.00 0.00 52 1013.7
20260831171524 66 352 2.0 6.0 0.00 0.00 0.00 52 1013.8
20260831171502 66 302 2.0 7.0 0.00 0.00 0.00 53 1013.8
20260831171428 65 319 2.0 8.0 0.00 0.00 0.00 51 1013.8
20260831171138 65 0 2.0 8.0 0.00 0.00 0.00 53 1013.8
20260831171116 65 334 2.0 8.0 0.00 0.00 0.00 52 1013.8
20260831171056 65 323 2.0 8.0 0.00 0.00 0.00 52 1013.8
20260831170749 65 303 2.0 8.0 0.00 0.00 0.00 52 1013.9
20260831170730 65 352 3.0 8.0 0.00 0.00 0.00 53 1013.9
20260831170443 65 313 3.0 8.0 0.00 0.00 0.00 51 1013.9
20260831170136 65 263 3.0 8.0 0.00 0.00 0.00 51 1013.9
20260831170114 64 352 2.0 8.0 0.00 0.00 0.00 53 1013.8
20260831170054 64 340 2.0 8.0 0.00 0.00 0.00 53 1013.8
20260831165748 64 342 2.0 8.0 0.00 0.00 0.00 53 1013.9
20260831165728 64 325 3.0 6.0 0.00 0.00 0.00 53 1013.9
20260831165706 64 341 3.0 6.0 0.00 0.00 0.00 54 1013.9
20260831165646 64 352 2.0 6.0 0.00 0.00 0.00 55 1013.9
20260831164800 64 336 2.0 7.0 0.00 0.00 0.00 54 1013.9
20260831164700 64 331 2.0 7.0 0.00 0.00 0.00 54 1014.0
20260831164630 64 316 1.0 7.0 0.00 0.00 0.00 53 1014.0
20260831164552 64 352 1.0 7.0 0.00 0.00 0.00 55 1014.0
20260831164531 64 333 2.0 7.0 0.00 0.00 0.00 54 1014.0
20260831164201 64 314 3.0 7.0 0.00 0.00 0.00 55 1014.0
20260831164100 64 5 3.0 7.0 0.00 0.00 0.00 54 1014.0
20260831164001 64 21 4.0 7.0 0.00 0.00 0.00 54 1014.0
20260831163903 64 286 3.0 7.0 0.00 0.00 0.00 54 1014.0
20260831163841 64 316 2.0 4.0 0.00 0.00 0.00 54 1014.0
20260831163816 64 352 2.0 5.0 0.00 0.00 0.00 55 1014.0
20260831163755 64 269 2.0 5.0 0.00 0.00 0.00 54 1014.0
20260831163718 64 345 2.0 5.0 0.00 0.00 0.00 54 1014.0
20260831163427 64 345 2.0 5.0 0.00 0.00 0.00 55 1014.0
20260831163129 64 11 2.0 5.0 0.00 0.00 0.00 55 1014.0
20260831163055 64 291 3.0 5.0 0.00 0.00 0.00 55 1014.1
20260831163032 64 311 2.0 5.0 0.00 0.00 0.00 54 1014.1
20260831163012 64 250 2.0 5.0 0.00 0.00 0.00 53 1014.1
20260831162950 64 277 1.0 4.0 0.00 0.00 0.00 55 1014.1
20260831162930 64 9 0.0 4.0 0.00 0.00 0.00 54 1014.1
20260831162854 64 0 1.0 4.0 0.00 0.00 0.00 53 1014.1
20260831162603 64 351 0.0 5.0 0.00 0.00 0.00 56 1014.0
20260831162315 63 90 1.0 5.0 0.00 0.00 0.00 56 1014.0
20260831162003 63 207 1.0 5.0 0.00 0.00 0.00 57 1014.0
20260831161710 63 9 2.0 5.0 0.00 0.00 0.00 56 1014.0
20260831161649 62 5 2.0 5.0 0.00 0.00 0.00 57 1014.0
20260831161615 62 344 2.0 5.0 0.00 0.00 0.00 58 1014.0
20260831161317 62 350 1.0 3.0 0.00 0.00 0.00 59 1014.1
20260831161257 62 318 1.0 3.0 0.00 0.00 0.00 59 1014.1
20260831161236 62 316 1.0 3.0 0.00 0.00 0.00 60 1014.1
20260831161202 62 263 1.0 3.0 0.00 0.00 0.00 59 1014.1
20260831161142 62 262 1.0 3.0 0.00 0.00 0.00 58 1014.1
20260831161120 62 352 1.0 3.0 0.00 0.00 0.00 58 1014.1
20260831161058 61 338 1.0 3.0 0.00 0.00 0.00 58 1014.1
20260831161038 61 275 2.0 3.0 0.00 0.00 0.00 57 1014.1
20260831161002 61 252 2.0 3.0 0.00 0.00 0.00 57 1014.1
20260831160942 61 252 2.0 3.0 0.00 0.00 0.00 57 1014.1
20260831160427 61 326 1.0 3.0 0.00 0.00 0.00 59 1014.2
20260831155850 61 323 1.0 3.0 0.00 0.00 0.00 61 1014.2
20260831155829 61 308 1.0 3.0 0.00 0.00 0.00 60 1014.2
20260831155808 61 352 1.0 3.0 0.00 0.00 0.00 61 1014.2
20260831155731 60 5 1.0 3.0 0.00 0.00 0.00 61 1014.1
20260831155713 60 5 1.0 3.0 0.00 0.00 0.00 61 1014.2
20260831155653 60 352 2.0 3.0 0.00 0.00 0.00 61 1014.2
20260831154809 60 261 1.0 4.0 0.00 0.00 0.00 61 1014.3
20260831154707 60 22 1.0 4.0 0.00 0.00 0.00 61 1014.2
20260831154605 60 350 1.0 4.0 0.00 0.00 0.00 62 1014.2
20260831154520 60 290 1.0 4.0 0.00 0.00 0.00 61 1014.3
20260831154404 60 288 0.0 4.0 0.00 0.00 0.00 62 1014.2
20260831154304 60 327 1.0 4.0 0.00 0.00 0.00 62 1014.2
20260831154201 60 349 2.0 4.0 0.00 0.00 0.00 61 1014.2
20260831154110 60 346 2.0 4.0 0.00 0.00 0.00 61 1014.3
20260831154051 60 345 2.0 4.0 0.00 0.00 0.00 61 1014.3
20260831154015 60 0 1.0 4.0 0.00 0.00 0.00 60 1014.3
20260831153954 59 333 1.0 4.0 0.00 0.00 0.00 61 1014.3
20260831153934 59 300 1.0 4.0 0.00 0.00 0.00 61 1014.4
20260831153911 59 338 2.0 4.0 0.00 0.00 0.00 60 1014.3
20260831153258 59 292 1.0 3.0 0.00 0.00 0.00 60 1014.4
20260831153157 59 286 1.0 2.0 0.00 0.00 0.00 61 1014.4
20260831153110 59 321 1.0 3.0 0.00 0.00 0.00 60 1014.4
20260831153033 59 290 1.0 3.0 0.00 0.00 0.00 60 1014.4
20260831153012 59 305 1.0 3.0 0.00 0.00 0.00 61 1014.4
20260831152645 59 352 1.0 3.0 0.00 0.00 0.00 61 1014.4
20260831152534 59 24 1.0 3.0 0.00 0.00 0.00 61 1014.4
20260831152430 59 321 1.0 3.0 0.00 0.00 0.00 65 1014.4
20260831152330 58 346 1.0 3.0 0.00 0.00 0.00 68 1014.4
20260831152256 58 352 1.0 3.0 0.00 0.00 0.00 67 1014.4
20260831152237 58 348 2.0 3.0 0.00 0.00 0.00 67 1014.4
20260831152216 58 316 1.0 3.0 0.00 0.00 0.00 68 1014.4
20260831152140 58 338 1.0 3.0 0.00 0.00 0.00 67 1014.4
20260831152120 58 289 1.0 3.0 0.00 0.00 0.00 68 1014.4
20260831152100 58 296 1.0 3.0 0.00 0.00 0.00 68 1014.4
20260831152038 58 313 1.0 3.0 0.00 0.00 0.00 68 1014.4
20260831152020 58 310 1.0 3.0 0.00 0.00 0.00 69 1014.4
20260831151944 58 313 1.0 3.0 0.00 0.00 0.00 68 1014.3
20260831151925 58 294 2.0 3.0 0.00 0.00 0.00 68 1014.3
20260831151903 58 293 2.0 3.0 0.00 0.00 0.00 67 1014.3
20260831151843 58 284 1.0 3.0 0.00 0.00 0.00 68 1014.3
20260831151822 58 275 1.0 3.0 0.00 0.00 0.00 68 1014.3
20260831151750 58 307 2.0 3.0 0.00 0.00 0.00 68 1014.3
20260831151230 58 302 1.0 3.0 0.00 0.00 0.00 69 1014.3
20260831151209 57 352 1.0 3.0 0.00 0.00 0.00 69 1014.3
20260831151131 57 333 1.0 3.0 0.00 0.00 0.00 69 1014.3
20260831151110 57 332 0.0 2.0 0.00 0.00 0.00 70 1014.3
20260831151049 57 336 0.0 1.0 0.00 0.00 0.00 70 1014.3
20260831151034 57 350 0.0 0.0 0.00 0.00 0.00 70 1014.3
20260831150509 57 350 0.0 0.0 0.00 0.00 0.00 69 1014.3
20260831150449 57 350 0.0 0.0 0.00 0.00 0.00 70 1014.3
20260831150426 57 350 0.0 1.0 0.00 0.00 0.00 70 1014.3
20260831150408 57 350 0.0 1.0 0.00 0.00 0.00 70 1014.3
20260831144800 57 350 0.0 1.0 0.00 0.00 0.00 70 1014.3
20260831144702 57 350 0.0 1.0 0.00 0.00 0.00 69 1014.2
20260831144601 56 290 0.0 0.0 0.00 0.00 0.00 70 1014.3
20260831144505 56 290 0.0 0.0 0.00 0.00 0.00 70 1014.2
20260831144401 56 290 0.0 0.0 0.00 0.00 0.00 70 1014.2
20260831144306 56 290 0.0 0.0 0.00 0.00 0.00 69 1014.2
20260831144244 56 290 0.0 0.0 0.00 0.00 0.00 69 1014.2
20260831144225 56 290 0.0 0.0 0.00 0.00 0.00 69 1014.2
20260831144206 56 290 0.0 0.0 0.00 0.00 0.00 69 1014.2
20260831143903 56 290 0.0 0.0 0.00 0.00 0.00 69 1014.2
20260831143844 56 290 0.0 0.0 0.00 0.00 0.00 69 1014.2
20260831143824 56 290 0.0 0.0 0.00 0.00 0.00 69 1014.1
20260831143802 56 290 0.0 0.0 0.00 0.00 0.00 69 1014.1
20260831143505 55 290 0.0 0.0 0.00 0.00 0.00 69 1014.1
20260831143219 55 290 0.0 0.0 0.00 0.00 0.00 69 1014.1
20260831142853 55 290 0.0 0.0 0.00 0.00 0.00 70 1014.1
20260831142737 54 290 0.0 0.0 0.00 0.00 0.00 70 1014.1
20260831142637 54 290 0.0 0.0 0.00 0.00 0.00 70 1014.0
20260831142617 54 290 0.0 0.0 0.00 0.00 0.00 71 1014.0
20260831142553 54 290 0.0 0.0 0.00 0.00 0.00 72 1014.1
20260831142519 53 290 0.0 0.0 0.00 0.00 0.00 72 1014.1
20260831142500 53 290 0.0 0.0 0.00 0.00 0.00 73 1014.0
20260831142440 53 290 0.0 0.0 0.00 0.00 0.00 73 1014.1
20260831142159 53 290 0.0 0.0 0.00 0.00 0.00 74 1014.0
20260831141858 52 290 0.0 0.0 0.00 0.00 0.00 76 1014.0
20260831141528 52 290 0.0 0.0 0.00 0.00 0.00 77 1014.0
20260831141443 52 290 0.0 0.0 0.00 0.00 0.00 76 1014.0
20260831141401 52 290 0.0 0.0 0.00 0.00 0.00 77 1014.0
20260831141342 51 290 0.0 0.0 0.00 0.00 0.00 77 1014.1
20260831141320 51 290 0.0 0.0 0.00 0.00 0.00 77 1014.0
20260831141300 51 290 0.0 0.0 0.00 0.00 0.00 78 1014.0
20260831141241 51 290 0.0 0.0 0.00 0.00 0.00 78 1014.0
20260831141205 51 290 0.0 0.0 0.00 0.00 0.00 78 1014.0
20260831141146 51 290 0.0 0.0 0.00 0.00 0.00 78 1013.9
20260831140617 50 290 0.0 0.0 0.00 0.00 0.00 79 1014.0
20260831140330 50 290 0.0 0.0 0.00 0.00 0.00 78 1014.0
20260831140021 50 290 0.0 0.0 0.00 0.00 0.00 78 1014.0
20260831135946 50 290 0.0 0.0 0.00 0.00 0.00 79 1014.0
20260831135928 50 290 0.0 0.0 0.00 0.00 0.00 79 1014.0
20260831135603 50 290 0.0 0.0 0.00 0.00 0.00 79 1014.0
20260831135525 50 290 0.0 0.0 0.00 0.00 0.00 78 1014.0
20260831135450 50 290 0.0 0.0 0.00 0.00 0.00 78 1014.0
20260831135431 50 290 0.0 0.0 0.00 0.00 0.00 78 1013.9
20260831135102 50 290 0.0 0.0 0.00 0.00 0.00 78 1013.9
20260831135003 50 290 0.0 0.0 0.00 0.00 0.00 78 1013.9
20260831134903 50 290 0.0 0.0 0.00 0.00 0.00 78 1013.9
20260831134803 50 290 0.0 0.0 0.00 0.00 0.00 78 1013.9
20260831134701 50 290 0.0 0.0 0.00 0.00 0.00 79 1013.9
20260831134603 50 290 0.0 0.0 0.00 0.00 0.00 79 1013.9
20260831134504 50 290 0.0 0.0 0.00 0.00 0.00 79 1013.9
20260831134404 50 290 0.0 0.0 0.00 0.00 0.00 79 1013.9
20260831134302 50 290 0.0 1.0 0.00 0.00 0.00 79 1013.9
20260831134205 50 290 0.0 1.0 0.00 0.00 0.00 79 1013.9
20260831134103 50 290 0.0 1.0 0.00 0.00 0.00 79 1013.9
20260831134002 50 290 0.0 1.0 0.00 0.00 0.00 79 1013.9
20260831133901 50 290 0.0 1.0 0.00 0.00 0.00 79 1013.9
20260831133812 50 290 0.0 1.0 0.00 0.00 0.00 79 1013.9
20260831133749 50 290 0.0 1.0 0.00 0.00 0.00 80 1013.9
20260831133732 50 290 0.0 1.0 0.00 0.00 0.00 80 1013.9
20260831133405 50 290 0.0 1.0 0.00 0.00 0.00 81 1013.9
20260831133303 50 133 0.0 0.0 0.00 0.00 0.00 81 1013.9
20260831133203 49 133 0.0 0.0 0.00 0.00 0.00 81 1013.9
20260831133124 49 133 0.0 0.0 0.00 0.00 0.00 82 1013.9
20260831133104 49 133 0.0 0.0 0.00 0.00 0.00 82 1013.9
20260831133033 49 133 0.0 0.0 0.00 0.00 0.00 82 1013.8
20260831132701 49 133 0.0 0.0 0.00 0.00 0.00 82 1013.8
20260831132603 49 133 0.0 0.0 0.00 0.00 0.00 82 1013.8
20260831132502 49 133 0.0 0.0 0.00 0.00 0.00 82 1013.8
20260831132404 49 133 0.0 0.0 0.00 0.00 0.00 82 1013.8
20260831132324 49 133 0.0 0.0 0.00 0.00 0.00 81 1013.8
20260831132307 49 133 0.0 0.0 0.00 0.00 0.00 81 1013.8
20260831132248 49 133 0.0 0.0 0.00 0.00 0.00 80 1013.8
20260831132231 49 133 0.0 0.0 0.00 0.00 0.00 80 1013.8
20260831132156 49 133 0.0 0.0 0.00 0.00 0.00 80 1013.8
20260831131603 49 133 0.0 0.0 0.00 0.00 0.00 79 1013.8
20260831131503 49 133 0.0 0.0 0.00 0.00 0.00 79 1013.7
20260831131404 49 133 0.0 0.0 0.00 0.00 0.00 79 1013.7
20260831131326 49 133 0.0 0.0 0.00 0.00 0.00 79 1013.7
20260831131308 49 133 0.0 0.0 0.00 0.00 0.00 79 1013.7
20260831131251 49 133 0.0 0.0 0.00 0.00 0.00 79 1013.7
20260831131000 49 133 0.0 0.0 0.00 0.00 0.00 78 1013.7
20260831130929 49 133 0.0 0.0 0.00 0.00 0.00 78 1013.7
20260831130602 49 133 0.0 0.0 0.00 0.00 0.00 78 1013.7
20260831130503 49 133 0.0 0.0 0.00 0.00 0.00 78 1013.7
20260831130417 49 133 0.0 0.0 0.00 0.00 0.00 78 1013.7
20260831130302 49 133 0.0 0.0 0.00 0.00 0.00 78 1013.7
20260831130202 49 133 0.0 0.0 0.00 0.00 0.00 77 1013.7
20260831130100 49 133 0.0 0.0 0.00 0.00 0.00 77 1013.7
20260831130006 49 133 0.0 0.0 0.00 0.00 0.00 76 1013.7
20260831125913 49 133 0.0 0.0 0.00 0.00 0.00 76 1013.7
20260831125804 49 133 0.0 0.0 0.00 0.00 0.00 77 1013.7
20260831125701 49 133 0.0 0.0 0.00 0.00 0.00 76 1013.7
20260831125601 49 133 0.0 0.0 0.00 0.00 0.00 76 1013.7
20260831125503 50 133 0.0 0.0 0.00 0.00 0.00 76 1013.6
20260831125411 50 133 0.0 0.0 0.00 0.00 0.00 76 1013.7
20260831125312 50 133 0.0 0.0 0.00 0.00 0.00 76 1013.7
20260831125251 50 133 0.0 0.0 0.00 0.00 0.00 76 1013.7
20260831125232 50 133 0.0 0.0 0.00 0.00 0.00 76 1013.6
20260831124907 50 133 0.0 0.0 0.00 0.00 0.00 76 1013.7
20260831124803 50 133 0.0 0.0 0.00 0.00 0.00 76 1013.6
20260831124701 50 133 0.0 0.0 0.00 0.00 0.00 76 1013.7
20260831124603 50 133 0.0 0.0 0.00 0.00 0.00 76 1013.7
20260831124502 50 133 0.0 0.0 0.00 0.00 0.00 76 1013.7
20260831124407 50 133 0.0 0.0 0.00 0.00 0.00 76 1013.7
20260831124301 50 133 0.0 0.0 0.00 0.00 0.00 76 1013.7
20260831124235 50 133 0.0 0.0 0.00 0.00 0.00 75 1013.7
20260831124213 50 133 0.0 0.0 0.00 0.00 0.00 75 1013.8
20260831124154 50 133 0.0 0.0 0.00 0.00 0.00 75 1013.7
20260831124135 50 133 0.0 0.0 0.00 0.00 0.00 75 1013.8
20260831123831 50 133 0.0 0.0 0.00 0.00 0.00 75 1013.7
20260831123504 50 133 0.0 0.0 0.00 0.00 0.00 75 1013.7
20260831123416 50 133 0.0 0.0 0.00 0.00 0.00 75 1013.8
20260831123341 50 133 0.0 0.0 0.00 0.00 0.00 75 1013.7
20260831123324 50 133 0.0 0.0 0.00 0.00 0.00 75 1013.7
20260831123304 50 133 0.0 0.0 0.00 0.00 0.00 75 1013.7
20260831123245 50 133 0.0 0.0 0.00 0.00 0.00 75 1013.8
20260831123222 50 133 0.0 0.0 0.00 0.00 0.00 75 1013.7
20260831123152 51 133 0.0 0.0 0.00 0.00 0.00 75 1013.7
20260831122904 51 133 0.0 0.0 0.00 0.00 0.00 75 1013.8
20260831122842 51 133 0.0 0.0 0.00 0.00 0.00 75 1013.7
20260831122537 51 133 0.0 0.0 0.00 0.00 0.00 75 1013.7
20260831122250 51 133 0.0 0.0 0.00 0.00 0.00 75 1013.7
20260831122231 51 133 0.0 0.0 0.00 0.00 0.00 75 1013.7
20260831122210 51 133 0.0 0.0 0.00 0.00 0.00 75 1013.7
20260831122140 51 133 0.0 0.0 0.00 0.00 0.00 75 1013.7
20260831122118 51 133 0.0 0.0 0.00 0.00 0.00 75 1013.7
20260831122100 51 133 0.0 0.0 0.00 0.00 0.00 75 1013.7
20260831121814 51 133 0.0 0.0 0.00 0.00 0.00 75 1013.7
20260831121741 51 133 0.0 0.0 0.00 0.00 0.00 75 1013.7
20260831120953 51 133 0.0 0.0 0.00 0.00 0.00 74 1013.7
20260831120919 51 133 0.0 0.0 0.00 0.00 0.00 74 1013.7
20260831120613 51 133 0.0 0.0 0.00 0.00 0.00 74 1013.7
20260831120552 51 133 0.0 0.0 0.00 0.00 0.00 74 1013.7
20260831120530 51 133 0.0 0.0 0.00 0.00 0.00 74 1013.7
20260831120148 51 133 0.0 0.0 0.00 0.00 0.00 74 1013.7
20260831120029 51 133 0.0 0.0 0.00 0.00 0.00 74 1013.7
20260831115931 51 133 0.0 0.0 0.00 0.00 0.00 75 1013.7
20260831115842 51 133 0.0 0.0 0.00 0.00 0.00 75 1013.7
20260831115729 51 133 0.0 0.0 0.00 0.00 0.00 75 1013.7
20260831115629 51 133 0.0 0.0 0.00 0.00 0.00 75 1013.7
20260831115531 51 133 0.0 0.0 0.00 0.00 0.00 75 1013.7
20260831115429 51 133 0.0 0.0 0.00 0.00 0.00 74 1013.7
20260831115340 51 133 0.0 0.0 0.00 0.00 0.00 74 1013.7
20260831115229 51 133 0.0 0.0 0.00 0.00 0.00 74 1013.7
20260831115129 51 133 0.0 0.0 0.00 0.00 0.00 74 1013.7
20260831115054 51 133 0.0 0.0 0.00 0.00 0.00 74 1013.7
20260831115032 51 133 0.0 0.0 0.00 0.00 0.00 74 1013.7
20260831115013 51 133 0.0 0.0 0.00 0.00 0.00 74 1013.8
20260831114619 51 133 0.0 0.0 0.00 0.00 0.00 73 1013.8
20260831114514 51 133 0.0 0.0 0.00 0.00 0.00 73 1013.8
20260831114403 51 133 0.0 0.0 0.00 0.00 0.00 73 1013.8
20260831114303 51 133 0.0 0.0 0.00 0.00 0.00 73 1013.8
20260831114204 51 133 0.0 0.0 0.00 0.00 0.00 73 1013.8
20260831114102 51 133 0.0 0.0 0.00 0.00 0.00 73 1013.8
20260831114003 51 133 0.0 0.0 0.00 0.00 0.00 73 1013.8
20260831113901 51 133 0.0 0.0 0.00 0.00 0.00 73 1013.8
20260831113803 51 133 0.0 0.0 0.00 0.00 0.00 73 1013.7
20260831113702 51 133 0.0 0.0 0.00 0.00 0.00 74 1013.7
20260831113604 51 133 0.0 0.0 0.00 0.00 0.00 74 1013.6
20260831113515 51 133 0.0 0.0 0.00 0.00 0.00 73 1013.6
20260831113454 51 133 0.0 0.0 0.00 0.00 0.00 73 1013.5
20260831113421 51 133 0.0 0.0 0.00 0.00 0.00 72 1013.5
20260831113403 51 133 0.0 0.0 0.00 0.00 0.00 72 1013.4
20260831113114 51 133 0.0 0.0 0.00 0.00 0.00 73 1013.4
20260831113055 51 133 0.0 0.0 0.00 0.00 0.00 73 1013.4
20260831112752 51 133 0.0 0.0 0.00 0.00 0.00 73 1013.4
20260831112731 51 133 0.0 0.0 0.00 0.00 0.00 73 1013.4
20260831112710 51 133 0.0 0.0 0.00 0.00 0.00 73 1013.4
20260831112651 51 133 0.0 0.0 0.00 0.00 0.00 73 1013.4
20260831112620 51 133 0.0 0.0 0.00 0.00 0.00 73 1013.4
20260831112559 51 133 0.0 0.0 0.00 0.00 0.00 73 1013.4
20260831111734 51 133 0.0 0.0 0.00 0.00 0.00 72 1013.4
20260831111705 51 133 0.0 0.0 0.00 0.00 0.00 72 1013.5
20260831111645 51 133 0.0 0.0 0.00 0.00 0.00 73 1013.5
20260831111624 51 133 0.0 0.0 0.00 0.00 0.00 72 1013.4
20260831111607 51 133 0.0 0.0 0.00 0.00 0.00 72 1013.4
20260831111536 51 133 0.0 0.0 0.00 0.00 0.00 72 1013.5
20260831111516 51 133 0.0 0.0 0.00 0.00 0.00 72 1013.5
20260831111227 51 133 0.0 0.0 0.00 0.00 0.00 72 1013.6
20260831111206 51 133 0.0 0.0 0.00 0.00 0.00 72 1013.6
20260831111129 51 133 0.0 0.0 0.00 0.00 0.00 72 1013.6
20260831110303 51 133 0.0 0.0 0.00 0.00 0.00 72 1013.5
20260831110201 51 133 0.0 0.0 0.00 0.00 0.00 72 1013.6
20260831110128 51 133 0.0 0.0 0.00 0.00 0.00 71 1013.6
20260831110107 51 133 0.0 0.0 0.00 0.00 0.00 71 1013.5
20260831110045 51 133 0.0 0.0 0.00 0.00 0.00 72 1013.5
20260831105702 51 133 0.0 0.0 0.00 0.00 0.00 72 1013.5
20260831105602 51 133 0.0 0.0 0.00 0.00 0.00 72 1013.5
20260831105529 51 133 0.0 0.0 0.00 0.00 0.00 72 1013.5
20260831105505 51 133 0.0 0.0 0.00 0.00 0.00 71 1013.5
20260831105439 51 133 0.0 0.0 0.00 0.00 0.00 72 1013.5
20260831105101 51 133 0.0 0.0 0.00 0.00 0.00 71 1013.5
20260831105002 51 133 0.0 0.0 0.00 0.00 0.00 71 1013.4
20260831104902 51 133 0.0 0.0 0.00 0.00 0.00 71 1013.4
20260831104815 51 133 0.0 0.0 0.00 0.00 0.00 71 1013.4
20260831104701 51 133 0.0 0.0 0.00 0.00 0.00 71 1013.4
20260831104601 51 133 0.0 0.0 0.00 0.00 0.00 71 1013.4
20260831104504 51 133 0.0 0.0 0.00 0.00 0.00 70 1013.4
20260831104401 51 133 0.0 0.0 0.00 0.00 0.00 70 1013.4
20260831104312 51 133 0.0 0.0 0.00 0.00 0.00 71 1013.3
20260831104201 51 133 0.0 0.0 0.00 0.00 0.00 71 1013.4
20260831104101 51 133 0.0 0.0 0.00 0.00 0.00 71 1013.3
20260831104002 52 133 0.0 0.0 0.00 0.00 0.00 71 1013.4
20260831103924 52 133 0.0 0.0 0.00 0.00 0.00 71 1013.4
20260831103904 52 133 0.0 0.0 0.00 0.00 0.00 71 1013.4
20260831103831 52 133 0.0 0.0 0.00 0.00 0.00 71 1013.4
20260831103453 52 133 0.0 0.0 0.00 0.00 0.00 71 1013.5
20260831103339 52 133 0.0 0.0 0.00 0.00 0.00 71 1013.6
20260831103231 52 133 0.0 0.0 0.00 0.00 0.00 71 1013.5
20260831103130 52 133 0.0 0.0 0.00 0.00 0.00 71 1013.5
20260831103058 52 133 0.0 0.0 0.00 0.00 0.00 71 1013.6
20260831103036 52 133 0.0 0.0 0.00 0.00 0.00 71 1013.6
20260831103017 52 133 0.0 0.0 0.00 0.00 0.00 71 1013.6
20260831102945 52 133 0.0 0.0 0.00 0.00 0.00 70 1013.6
20260831102654 52 133 0.0 0.0 0.00 0.00 0.00 71 1013.6
20260831102635 52 133 0.0 0.0 0.00 0.00 0.00 71 1013.6
20260831102613 52 133 0.0 0.0 0.00 0.00 0.00 70 1013.6
20260831102538 52 133 0.0 0.0 0.00 0.00 0.00 71 1013.6
20260831102253 52 133 0.0 0.0 0.00 0.00 0.00 71 1013.6
20260831102001 52 133 0.0 0.0 0.00 0.00 0.00 71 1013.6
20260831101653 52 133 0.0 0.0 0.00 0.00 0.00 71 1013.7
20260831101633 52 133 0.0 0.0 0.00 0.00 0.00 71 1013.6
20260831101302 52 133 0.0 0.0 0.00 0.00 0.00 71 1013.7
20260831101202 52 133 0.0 0.0 0.00 0.00 0.00 71 1013.6
20260831101110 52 133 0.0 0.0 0.00 0.00 0.00 71 1013.6
20260831101050 52 133 0.0 0.0 0.00 0.00 0.00 71 1013.7
20260831101030 52 133 0.0 0.0 0.00 0.00 0.00 71 1013.7
20260831100702 52 133 0.0 0.0 0.00 0.00 0.00 71 1013.7
20260831100636 52 133 0.0 0.0 0.00 0.00 0.00 71 1013.7
20260831100616 52 133 0.0 0.0 0.00 0.00 0.00 71 1013.7
20260831100553 52 133 0.0 0.0 0.00 0.00 0.00 71 1013.7
20260831100250 52 133 0.0 0.0 0.00 0.00 0.00 70 1013.8
20260831100231 52 133 0.0 0.0 0.00 0.00 0.00 70 1013.8
20260831095903 53 133 0.0 0.0 0.00 0.00 0.00 70 1013.8
20260831095803 53 133 0.0 0.0 0.00 0.00 0.00 70 1013.8
20260831095701 53 133 0.0 0.0 0.00 0.00 0.00 70 1013.8
20260831095602 53 133 0.0 0.0 0.00 0.00 0.00 69 1013.8
20260831095503 53 133 0.0 0.0 0.00 0.00 0.00 69 1013.8
20260831095402 53 133 0.0 0.0 0.00 0.00 0.00 70 1013.8
20260831095301 53 133 0.0 0.0 0.00 0.00 0.00 70 1013.8
20260831095228 53 133 0.0 0.0 0.00 0.00 0.00 70 1013.8
20260831095206 53 133 0.0 0.0 0.00 0.00 0.00 69 1013.8
20260831095148 53 133 0.0 0.0 0.00 0.00 0.00 69 1013.8
20260831095129 53 133 0.0 0.0 0.00 0.00 0.00 69 1013.8
20260831095109 53 133 0.0 0.0 0.00 0.00 0.00 69 1013.8
20260831094807 53 133 0.0 0.0 0.00 0.00 0.00 69 1013.8
20260831094744 53 133 0.0 0.0 0.00 0.00 0.00 68 1013.8
20260831094135 53 133 0.0 0.0 0.00 0.00 0.00 67 1013.8
20260831094031 53 133 0.0 0.0 0.00 0.00 0.00 67 1013.8
20260831093929 53 133 0.0 0.0 0.00 0.00 0.00 67 1013.8
20260831093831 53 133 0.0 0.0 0.00 0.00 0.00 68 1013.9
20260831093741 53 133 0.0 0.0 0.00 0.00 0.00 68 1013.9
20260831093530 53 133 0.0 0.0 0.00 0.00 0.00 69 1013.9
20260831093431 53 133 0.0 0.0 0.00 0.00 0.00 68 1013.9
20260831093331 53 133 0.0 0.0 0.00 0.00 0.00 69 1013.9
20260831093239 53 133 0.0 0.0 0.00 0.00 0.00 69 1013.9
20260831093130 53 133 0.0 0.0 0.00 0.00 0.00 69 1014.0
20260831093029 53 133 0.0 0.0 0.00 0.00 0.00 69 1014.0
20260831092931 53 133 0.0 0.0 0.00 0.00 0.00 69 1014.0
20260831092830 53 133 0.0 0.0 0.00 0.00 0.00 69 1014.0
20260831092721 53 133 0.0 0.0 0.00 0.00 0.00 69 1014.0
20260831092700 54 133 0.0 0.0 0.00 0.00 0.00 69 1014.0
20260831092641 54 133 0.0 0.0 0.00 0.00 0.00 69 1014.0
20260831092306 54 133 0.0 0.0 0.00 0.00 0.00 69 1014.0
20260831092214 54 133 0.0 0.0 0.00 0.00 0.00 69 1013.9
20260831092153 54 133 0.0 0.0 0.00 0.00 0.00 69 1013.9
20260831092132 54 133 0.0 0.0 0.00 0.00 0.00 69 1013.9
20260831091841 54 133 0.0 0.0 0.00 0.00 0.00 69 1013.9
20260831091806 54 133 0.0 0.0 0.00 0.00 0.00 69 1013.9
20260831091748 54 133 0.0 0.0 0.00 0.00 0.00 69 1013.9
20260831091729 54 133 0.0 0.0 0.00 0.00 0.00 69 1013.9
20260831091709 54 133 0.0 0.0 0.00 0.00 0.00 69 1013.9
20260831091100 54 133 0.0 0.0 0.00 0.00 0.00 68 1013.9
20260831091004 54 133 0.0 0.0 0.00 0.00 0.00 69 1013.9
20260831090901 54 133 0.0 0.0 0.00 0.00 0.00 68 1013.9
20260831090809 54 133 0.0 0.0 0.00 0.00 0.00 68 1013.9
20260831090735 54 133 0.0 0.0 0.00 0.00 0.00 67 1013.9
20260831090717 54 133 0.0 0.0 0.00 0.00 0.00 67 1013.9
20260831090658 54 133 0.0 0.0 0.00 0.00 0.00 67 1013.9
20260831090403 54 133 0.0 0.0 0.00 0.00 0.00 68 1014.0
20260831090330 54 133 0.0 0.0 0.00 0.00 0.00 68 1014.0
20260831090016 54 133 0.0 0.0 0.00 0.00 0.00 68 1014.0
20260831085948 54 133 0.0 0.0 0.00 0.00 0.00 68 1014.0
20260831085929 54 133 0.0 0.0 0.00 0.00 0.00 68 1014.0
20260831085547 54 133 0.0 0.0 0.00 0.00 0.00 67 1014.0
20260831085517 54 133 0.0 0.0 0.00 0.00 0.00 68 1014.0
20260831085455 54 133 0.0 0.0 0.00 0.00 0.00 68 1014.0
20260831085435 54 133 0.0 0.0 0.00 0.00 0.00 68 1014.0
20260831085130 54 133 0.0 0.0 0.00 0.00 0.00 67 1014.0
20260831085112 54 133 0.0 0.0 0.00 0.00 0.00 67 1014.1
20260831084736 55 133 0.0 0.0 0.00 0.00 0.00 68 1014.0
20260831084634 55 133 0.0 0.0 0.00 0.00 0.00 68 1014.0
20260831084543 55 133 0.0 0.0 0.00 0.00 0.00 68 1014.0
20260831084520 55 133 0.0 0.0 0.00 0.00 0.00 69 1014.0
20260831084501 55 133 0.0 0.0 0.00 0.00 0.00 69 1014.0
20260831084130 55 133 0.0 0.0 0.00 0.00 0.00 69 1014.0
20260831084030 55 133 0.0 0.0 0.00 0.00 0.00 69 1014.0
20260831083931 55 133 0.0 0.0 0.00 0.00 0.00 69 1014.0
20260831083829 55 133 0.0 0.0 0.00 0.00 0.00 69 1014.1
20260831083731 55 133 0.0 0.0 0.00 0.00 0.00 69 1014.0
20260831083629 55 133 0.0 0.0 0.00 0.00 0.00 69 1014.0
20260831083542 55 133 0.0 0.0 0.00 0.00 0.00 69 1014.1
20260831083517 55 133 0.0 0.0 0.00 0.00 0.00 69 1014.1
20260831083458 55 133 0.0 0.0 0.00 0.00 0.00 69 1014.1
20260831083115 55 133 0.0 0.0 0.00 0.00 0.00 69 1014.1
20260831083010 55 133 0.0 0.0 0.00 0.00 0.00 68 1014.0
20260831082908 55 133 0.0 0.0 0.00 0.00 0.00 68 1014.1
20260831082801 55 133 0.0 0.0 0.00 0.00 0.00 68 1014.1
20260831082702 55 133 0.0 0.0 0.00 0.00 0.00 68 1014.1
20260831082601 55 133 0.0 0.0 0.00 0.00 0.00 68 1014.0
20260831082504 55 133 0.0 0.0 0.00 0.00 0.00 67 1014.0
20260831082402 55 133 0.0 0.0 0.00 0.00 0.00 67 1014.0
20260831082301 55 133 0.0 0.0 0.00 0.00 0.00 67 1014.0
20260831082204 55 133 0.0 0.0 0.00 0.00 0.00 67 1014.0
20260831082103 55 133 0.0 0.0 0.00 0.00 0.00 68 1014.0
20260831082042 55 133 0.0 0.0 0.00 0.00 0.00 67 1014.0
20260831082023 55 133 0.0 0.0 0.00 0.00 0.00 67 1014.0
20260831081649 55 133 0.0 0.0 0.00 0.00 0.00 67 1014.0
20260831081546 55 133 0.0 0.0 0.00 0.00 0.00 67 1014.0
20260831081446 55 133 0.0 0.0 0.00 0.00 0.00 67 1014.0
20260831081345 55 133 0.0 0.0 0.00 0.00 0.00 67 1014.1
20260831081254 55 133 0.0 0.0 0.00 0.00 0.00 67 1014.0
20260831081221 55 133 0.0 0.0 0.00 0.00 0.00 66 1014.0
20260831081159 55 133 0.0 0.0 0.00 0.00 0.00 66 1013.9
20260831080830 55 133 0.0 0.0 0.00 0.00 0.00 65 1013.9
20260831080731 56 133 0.0 0.0 0.00 0.00 0.00 65 1014.0
20260831080630 56 133 0.0 0.0 0.00 0.00 0.00 65 1013.9
20260831080527 56 133 0.0 0.0 0.00 0.00 0.00 65 1014.0
20260831080421 56 133 0.0 0.0 0.00 0.00 0.00 65 1014.0
20260831080315 56 133 0.0 0.0 0.00 0.00 0.00 65 1014.0
20260831080215 56 133 0.0 0.0 0.00 0.00 0.00 65 1014.0
20260831080126 56 133 0.0 0.0 0.00 0.00 0.00 65 1014.0
20260831080039 56 133 0.0 0.0 0.00 0.00 0.00 65 1014.0
20260831075713 56 133 0.0 0.0 0.00 0.00 0.00 65 1013.9
20260831075611 56 133 0.0 0.0 0.00 0.00 0.00 65 1014.0
20260831075505 56 133 0.0 0.0 0.00 0.00 0.00 65 1013.9
20260831075404 56 133 0.0 0.0 0.00 0.00 0.00 65 1013.9
20260831075306 56 133 0.0 0.0 0.00 0.00 0.00 64 1014.0
20260831075203 56 133 0.0 0.0 0.00 0.00 0.00 64 1014.0
20260831075102 56 133 0.0 0.0 0.00 0.00 0.00 65 1014.0
20260831075002 56 133 0.0 0.0 0.00 0.00 0.00 64 1013.9
20260831074921 56 133 0.0 0.0 0.00 0.00 0.00 64 1014.0
20260831074900 56 133 0.0 0.0 0.00 0.00 0.00 64 1014.0
20260831074842 56 133 0.0 0.0 0.00 0.00 0.00 64 1014.0
20260831074503 56 133 0.0 0.0 0.00 0.00 0.00 65 1014.0
20260831074402 56 133 0.0 0.0 0.00 0.00 0.00 64 1014.0
20260831074303 56 133 0.0 0.0 0.00 0.00 0.00 64 1014.0
20260831074201 56 133 0.0 0.0 0.00 0.00 0.00 64 1014.0
20260831074102 56 133 0.0 0.0 0.00 0.00 0.00 64 1013.9
20260831074002 56 133 0.0 0.0 0.00 0.00 0.00 64 1013.9
20260831073851 56 133 0.0 0.0 0.00 0.00 0.00 64 1013.9
20260831073750 56 133 0.0 0.0 0.00 0.00 0.00 64 1013.9
20260831073656 56 133 0.0 0.0 0.00 0.00 0.00 65 1013.9
20260831073545 56 133 0.0 0.0 0.00 0.00 0.00 65 1013.9
20260831073516 56 133 0.0 0.0 0.00 0.00 0.00 65 1013.9
20260831073458 56 133 0.0 0.0 0.00 0.00 0.00 65 1013.9
20260831073150 56 133 0.0 0.0 0.00 0.00 0.00 65 1013.9
20260831073127 56 133 0.0 0.0 0.00 0.00 0.00 65 1013.9
20260831073109 56 133 0.0 0.0 0.00 0.00 0.00 65 1013.9
20260831072822 56 133 0.0 0.0 0.00 0.00 0.00 64 1013.9
20260831072748 56 133 0.0 0.0 0.00 0.00 0.00 64 1013.9
20260831072729 56 133 0.0 0.0 0.00 0.00 0.00 64 1013.9
20260831072706 56 133 0.0 0.0 0.00 0.00 0.00 63 1013.9
20260831072646 56 133 0.0 0.0 0.00 0.00 0.00 64 1013.9
20260831072627 56 133 0.0 0.0 0.00 0.00 0.00 64 1013.9
20260831072053 57 133 0.0 0.0 0.00 0.00 0.00 64 1014.0
20260831072035 57 133 0.0 0.0 0.00 0.00 0.00 64 1013.9
20260831072010 57 133 0.0 0.0 0.00 0.00 0.00 64 1013.9
20260831071401 57 133 0.0 0.0 0.00 0.00 0.00 63 1014.0
20260831071303 57 133 0.0 0.0 0.00 0.00 0.00 63 1014.0
20260831071201 57 133 0.0 0.0 0.00 0.00 0.00 63 1013.9
20260831071101 57 133 0.0 0.0 0.00 0.00 0.00 64 1014.0
20260831071002 57 133 0.0 0.0 0.00 0.00 0.00 64 1013.9
20260831070907 57 133 0.0 0.0 0.00 0.00 0.00 64 1014.0
20260831070846 57 133 0.0 0.0 0.00 0.00 0.00 64 1013.9
20260831070826 57 133 0.0 0.0 0.00 0.00 0.00 63 1014.0
20260831070439 57 133 0.0 0.0 0.00 0.00 0.00 63 1013.9
20260831070341 57 133 0.0 0.0 0.00 0.00 0.00 63 1014.0
20260831070240 57 133 0.0 0.0 0.00 0.00 0.00 63 1014.0
20260831070155 58 133 0.0 0.0 0.00 0.00 0.00 63 1014.0
20260831070119 58 133 0.0 0.0 0.00 0.00 0.00 64 1014.0
20260831070058 58 133 0.0 0.0 0.00 0.00 0.00 63 1014.0
20260831065729 58 133 0.0 0.0 0.00 0.00 0.00 63 1014.1
20260831065641 58 133 0.0 0.0 0.00 0.00 0.00 63 1014.1
20260831065531 58 133 0.0 0.0 0.00 0.00 0.00 62 1014.0
20260831065430 58 133 0.0 0.0 0.00 0.00 0.00 62 1014.0
20260831065329 58 133 0.0 0.0 0.00 0.00 0.00 61 1014.1
20260831065230 58 133 0.0 0.0 0.00 0.00 0.00 62 1014.1
20260831065140 58 133 0.0 0.0 0.00 0.00 0.00 61 1014.1
20260831065028 58 133 0.0 0.0 0.00 0.00 0.00 61 1014.1
20260831064930 58 133 0.0 0.0 0.00 0.00 0.00 61 1014.1
20260831064831 58 133 0.0 0.0 0.00 0.00 0.00 62 1014.1
20260831064741 58 133 0.0 0.0 0.00 0.00 0.00 62 1014.0
20260831064704 58 133 0.0 0.0 0.00 0.00 0.00 62 1014.1
20260831064645 58 133 0.0 0.0 0.00 0.00 0.00 62 1014.1
20260831064311 58 133 0.0 0.0 0.00 0.00 0.00 61 1014.1
20260831064249 58 133 0.0 0.0 0.00 0.00 0.00 61 1014.1
20260831064213 58 133 0.0 0.0 0.00 0.00 0.00 61 1014.1
20260831064151 58 133 0.0 0.0 0.00 0.00 0.00 60 1014.1
20260831064134 58 133 0.0 0.0 0.00 0.00 0.00 61 1014.1
20260831063844 58 133 0.0 0.0 0.00 0.00 0.00 61 1014.1
20260831063520 58 133 0.0 0.0 0.00 0.00 0.00 60 1014.0
20260831063453 58 133 0.0 0.0 0.00 0.00 0.00 59 1014.0
20260831063434 58 133 0.0 0.0 0.00 0.00 0.00 59 1014.0
20260831063413 58 133 0.0 0.0 0.00 0.00 0.00 59 1014.0
20260831063340 58 133 0.0 0.0 0.00 0.00 0.00 58 1014.0
20260831063321 58 133 0.0 0.0 0.00 0.00 0.00 59 1014.0
20260831063303 58 133 0.0 0.0 0.00 0.00 0.00 59 1014.0
20260831063242 58 133 0.0 0.0 0.00 0.00 0.00 59 1013.9
20260831062401 58 133 0.0 0.0 0.00 0.00 0.00 61 1014.0
20260831062305 58 133 0.0 0.0 0.00 0.00 0.00 60 1014.0
20260831062203 58 133 0.0 0.0 0.00 0.00 0.00 61 1014.0
20260831062105 59 133 0.0 0.0 0.00 0.00 0.00 63 1014.0
20260831062002 59 133 0.0 0.0 0.00 0.00 0.00 60 1014.0
20260831061902 59 133 0.0 0.0 0.00 0.00 0.00 59 1014.0
20260831061802 59 133 0.0 0.0 0.00 0.00 0.00 60 1014.1
20260831061702 59 133 0.0 0.0 0.00 0.00 0.00 60 1014.0
20260831061602 59 133 0.0 0.0 0.00 0.00 0.00 60 1014.0
20260831061511 59 133 0.0 0.0 0.00 0.00 0.00 60 1014.0
20260831061448 59 133 0.0 0.0 0.00 0.00 0.00 60 1014.0
20260831061429 59 133 0.0 0.0 0.00 0.00 0.00 61 1014.0
20260831061103 59 133 0.0 0.0 0.00 0.00 0.00 61 1014.0
20260831061011 59 133 0.0 0.0 0.00 0.00 0.00 61 1014.0
20260831060950 59 133 0.0 0.0 0.00 0.00 0.00 61 1014.0
20260831060931 59 133 0.0 0.0 0.00 0.00 0.00 59 1014.0
20260831060602 59 133 0.0 0.0 0.00 0.00 0.00 61 1014.0
20260831060505 59 133 0.0 0.0 0.00 0.00 0.00 60 1014.0
20260831060403 59 133 0.0 0.0 0.00 0.00 0.00 60 1014.0
20260831060303 59 133 0.0 0.0 0.00 0.00 0.00 60 1014.0
20260831060201 59 133 0.0 0.0 0.00 0.00 0.00 60 1014.0
20260831060107 59 133 0.0 0.0 0.00 0.00 0.00 60 1014.0
20260831060002 59 133 0.0 0.0 0.00 0.00 0.00 61 1014.0
20260831055857 59 133 0.0 0.0 0.00 0.00 0.00 61 1014.0
20260831055752 60 133 0.0 0.0 0.00 0.00 0.00 61 1014.0
20260831055643 60 133 0.0 0.0 0.00 0.00 0.00 60 1014.0
20260831055540 60 133 0.0 0.0 0.00 0.00 0.00 60 1014.0
20260831055446 60 133 0.0 0.0 0.00 0.00 0.00 63 1014.0
20260831055424 60 133 0.0 0.0 0.00 0.00 0.00 62 1014.0
20260831055403 60 133 0.0 0.0 0.00 0.00 0.00 59 1014.0
20260831055038 60 133 0.0 0.0 0.00 0.00 0.00 60 1014.0
20260831054937 60 133 0.0 0.0 0.00 0.00 0.00 59 1014.0
20260831054831 60 133 0.0 0.0 0.00 0.00 0.00 59 1014.0
20260831054731 60 133 0.0 0.0 0.00 0.00 0.00 59 1014.0
20260831054630 60 133 0.0 0.0 0.00 0.00 0.00 59 1014.0
20260831054532 60 133 0.0 0.0 0.00 0.00 0.00 59 1014.0
20260831054429 60 133 0.0 0.0 0.00 0.00 0.00 60 1014.0
20260831054329 60 133 0.0 0.0 0.00 0.00 0.00 59 1014.0
20260831054230 60 133 0.0 1.0 0.00 0.00 0.00 59 1014.0
20260831054137 60 133 0.0 1.0 0.00 0.00 0.00 59 1014.0
20260831054100 60 133 0.0 1.0 0.00 0.00 0.00 59 1014.0
20260831054041 60 133 0.0 2.0 0.00 0.00 0.00 57 1014.1
20260831054022 60 133 0.0 2.0 0.00 0.00 0.00 57 1014.1
20260831054000 60 133 0.0 2.0 0.00 0.00 0.00 58 1014.1
20260831053700 61 133 0.0 2.0 0.00 0.00 0.00 59 1014.1
20260831053410 61 133 1.0 2.0 0.00 0.00 0.00 57 1014.1
20260831053349 61 132 1.0 2.0 0.00 0.00 0.00 57 1014.2
20260831053331 61 128 1.0 2.0 0.00 0.00 0.00 55 1014.1
20260831053255 61 124 0.0 2.0 0.00 0.00 0.00 56 1014.1
20260831053005 61 115 0.0 1.0 0.00 0.00 0.00 58 1014.1
20260831052945 61 115 0.0 1.0 0.00 0.00 0.00 58 1014.1
20260831052923 61 115 0.0 1.0 0.00 0.00 0.00 58 1014.0
20260831052850 61 115 0.0 1.0 0.00 0.00 0.00 58 1014.1
20260831052602 61 115 0.0 1.0 0.00 0.00 0.00 59 1014.0
20260831052004 61 115 0.0 1.0 0.00 0.00 0.00 58 1014.1
20260831051854 61 115 0.0 1.0 0.00 0.00 0.00 58 1014.1
20260831051744 61 115 0.0 1.0 0.00 0.00 0.00 58 1014.1
20260831051639 61 115 0.0 1.0 0.00 0.00 0.00 58 1014.1
20260831051536 61 115 0.0 1.0 0.00 0.00 0.00 58 1014.1
20260831051438 62 115 0.0 1.0 0.00 0.00 0.00 58 1014.1
20260831051332 62 115 0.0 1.0 0.00 0.00 0.00 58 1014.1
20260831051230 62 115 0.0 1.0 0.00 0.00 0.00 58 1014.1
20260831051130 62 115 0.0 1.0 0.00 0.00 0.00 58 1014.1
20260831051031 62 115 0.0 1.0 0.00 0.00 0.00 58 1014.1
20260831050929 62 115 0.0 1.0 0.00 0.00 0.00 58 1014.2
20260831050831 62 115 0.0 1.0 0.00 0.00 0.00 58 1014.1
20260831050729 62 115 0.0 1.0 0.00 0.00 0.00 58 1014.1
20260831050634 62 115 0.0 1.0 0.00 0.00 0.00 58 1014.1
20260831050531 62 115 0.0 1.0 0.00 0.00 0.00 58 1014.1
20260831050431 62 115 0.0 1.0 0.00 0.00 0.00 58 1014.1
20260831050328 62 115 0.0 1.0 0.00 0.00 0.00 57 1014.1
20260831050231 62 115 0.0 1.0 0.00 0.00 0.00 57 1014.1
20260831050137 62 115 0.0 1.0 0.00 0.00 0.00 58 1014.1
20260831050103 62 115 0.0 1.0 0.00 0.00 0.00 58 1014.1
20260831050040 62 115 0.0 1.0 0.00 0.00 0.00 58 1014.1
20260831045725 62 115 0.0 1.0 0.00 0.00 0.00 56 1014.1
20260831045706 62 115 0.0 0.0 0.00 0.00 0.00 56 1014.1
20260831045635 63 115 0.0 0.0 0.00 0.00 0.00 56 1014.2
20260831045323 63 115 0.0 0.0 0.00 0.00 0.00 57 1014.2
20260831045306 63 115 0.0 0.0 0.00 0.00 0.00 56 1014.1
20260831045246 63 115 0.0 0.0 0.00 0.00 0.00 57 1014.2
20260831044901 63 115 0.0 0.0 0.00 0.00 0.00 57 1014.1
20260831044803 63 115 0.0 0.0 0.00 0.00 0.00 57 1014.1
20260831044702 63 115 0.0 0.0 0.00 0.00 0.00 57 1014.1
20260831044602 63 115 0.0 0.0 0.00 0.00 0.00 57 1014.1
20260831044503 63 115 0.0 0.0 0.00 0.00 0.00 57 1014.1
20260831044403 63 115 0.0 0.0 0.00 0.00 0.00 57 1014.1
20260831044301 63 115 0.0 0.0 0.00 0.00 0.00 56 1014.1
20260831044202 63 115 0.0 0.0 0.00 0.00 0.00 56 1014.1
20260831044104 63 115 0.0 0.0 0.00 0.00 0.00 56 1014.1
20260831044029 63 115 0.0 0.0 0.00 0.00 0.00 56 1014.1
20260831044009 63 115 0.0 0.0 0.00 0.00 0.00 56 1014.1
20260831043953 63 115 0.0 0.0 0.00 0.00 0.00 56 1014.1
20260831043933 64 115 0.0 0.0 0.00 0.00 0.00 56 1014.1
20260831043914 64 115 0.0 0.0 0.00 0.00 0.00 57 1014.1
20260831043311 64 115 0.0 1.0 0.00 0.00 0.00 57 1014.0
20260831043252 64 115 0.0 1.0 0.00 0.00 0.00 57 1014.0
20260831043231 64 115 0.0 1.0 0.00 0.00 0.00 56 1014.0
20260831043159 64 115 0.0 1.0 0.00 0.00 0.00 56 1014.0
20260831043139 64 115 0.0 1.0 0.00 0.00 0.00 55 1014.1
20260831043120 64 115 0.0 1.0 0.00 0.00 0.00 56 1014.1
20260831042833 64 115 0.0 2.0 0.00 0.00 0.00 56 1014.0
20260831042758 64 115 0.0 2.0 0.00 0.00 0.00 56 1014.0
20260831042511 64 115 1.0 2.0 0.00 0.00 0.00 56 1014.0
20260831042452 65 115 1.0 2.0 0.00 0.00 0.00 56 1014.0
20260831042431 65 115 1.0 2.0 0.00 0.00 0.00 55 1014.0
20260831042401 65 115 0.0 2.0 0.00 0.00 0.00 55 1014.0